Wetterdaten: aktuell Freitag, 30.07.2021 10:07
Datum Zeit Temp 2m Temp 5cm Feuchte 2m Luftdruck Regen Wind Richtung Richtung ET UV Solar Taupunkt Windchill Windben Empfang
30.07.2021 10:07 21,9 C 23,9 C 56 % 1012,4 hPa 0,0 l/m 4,8 km/h (1 Bft) SW 225 0,000 mm 0,9 UV-I 146 W/m 12,7 C 21,9 C 4,8 km/h (1 Bft) 91,30 %
30.07.2021 10:06 22,1 C 23,9 C 57 % 1012,4 hPa 0,0 l/m 3,2 km/h (1 Bft) S-SW 202 0,000 mm 0,9 UV-I 142 W/m 13,2 C 22,1 C 4,8 km/h (1 Bft) 86,96 %
30.07.2021 10:05 22,3 C 24,4 C 54 % 1012,4 hPa 0,0 l/m 4,8 km/h (1 Bft) S-SW 202 0,000 mm 0,8 UV-I 141 W/m 12,5 C 22,3 C 6,4 km/h (2 Bft) 91,30 %
30.07.2021 10:04 22,4 C 24,4 C 53 % 1012,5 hPa 0,0 l/m 1,6 km/h (1 Bft) W-SW 247 0,000 mm 0,8 UV-I 141 W/m 12,3 C 22,4 C 3,2 km/h (1 Bft) 95,65 %
30.07.2021 10:03 22,6 C 25,6 C 51 % 1012,4 hPa 0,0 l/m 3,2 km/h (1 Bft) W-SW 247 0,000 mm 0,8 UV-I 142 W/m 11,9 C 22,6 C 4,8 km/h (1 Bft) 86,96 %
30.07.2021 10:02 22,7 C 26,1 C 52 % 1012,5 hPa 0,0 l/m 4,8 km/h (1 Bft) W-SW 247 0,000 mm 0,8 UV-I 146 W/m 12,3 C 22,7 C 6,4 km/h (2 Bft) 95,65 %
30.07.2021 10:01 22,8 C 27,2 C 50 % 1012,6 hPa 0,0 l/m 1,6 km/h (1 Bft) W-SW 247 0,000 mm 0,9 UV-I 165 W/m 11,8 C 22,8 C 6,4 km/h (2 Bft) 82,61 %
30.07.2021 10:00 22,8 C 27,8 C 52 % 1012,6 hPa 0,0 l/m 3,2 km/h (1 Bft) W-SW 247 0,330 mm 1,0 UV-I 183 W/m 12,4 C 22,8 C 4,8 km/h (1 Bft) 95,65 %
30.07.2021 09:59 22,9 C 28,9 C 50 % 1012,6 hPa 0,0 l/m 8,0 km/h (2 Bft) W-SW 247 0,000 mm 1,1 UV-I 202 W/m 11,9 C 22,4 C 9,7 km/h (2 Bft) 86,96 %
30.07.2021 09:58 23,1 C 28,9 C 53 % 1012,5 hPa 0,0 l/m 4,8 km/h (1 Bft) W-SW 247 0,000 mm 1,2 UV-I 429 W/m 13,0 C 23,1 C 9,7 km/h (2 Bft) 91,30 %
30.07.2021 09:57 23,2 C 29,4 C 52 % 1012,6 hPa 0,0 l/m 4,8 km/h (1 Bft) W-SW 247 0,000 mm 1,6 UV-I 429 W/m 12,8 C 23,2 C 6,4 km/h (2 Bft) 91,30 %
30.07.2021 09:56 23,3 C 29,4 C 52 % 1012,5 hPa 0,0 l/m 4,8 km/h (1 Bft) W-SW 247 0,000 mm 1,9 UV-I 332 W/m 12,9 C 23,3 C 6,4 km/h (2 Bft) 86,96 %
30.07.2021 09:55 23,2 C 29,4 C 50 % 1012,5 hPa 0,0 l/m 6,4 km/h (2 Bft) W-SW 247 0,000 mm 2,6 UV-I 494 W/m 12,2 C 23,2 C 9,7 km/h (2 Bft) 91,30 %
30.07.2021 09:54 23,2 C 29,4 C 54 % 1012,5 hPa 0,0 l/m 8,0 km/h (2 Bft) W-SW 247 0,000 mm 3,3 UV-I 410 W/m 13,4 C 22,7 C 12,9 km/h (3 Bft) 95,65 %
30.07.2021 09:53 23,1 C 30,0 C 56 % 1012,4 hPa 0,0 l/m 6,4 km/h (2 Bft) SW 225 0,000 mm 2,2 UV-I 513 W/m 13,8 C 23,1 C 9,7 km/h (2 Bft) 95,65 %
30.07.2021 09:52 23,1 C 30,0 C 60 % 1012,4 hPa 0,0 l/m 4,8 km/h (1 Bft) S-SW 202 0,000 mm 2,3 UV-I 513 W/m 14,9 C 23,1 C 6,4 km/h (2 Bft) 91,30 %
30.07.2021 09:51 22,9 C 30,6 C 56 % 1012,5 hPa 0,0 l/m 3,2 km/h (1 Bft) S-SW 202 0,000 mm 2,3 UV-I 856 W/m 13,6 C 22,9 C 6,4 km/h (2 Bft) 100,00 %
30.07.2021 09:50 22,8 C 30,6 C 56 % 1012,5 hPa 0,0 l/m 1,6 km/h (1 Bft) S-SW 202 0,000 mm 3,3 UV-I 856 W/m 13,6 C 22,8 C 4,8 km/h (1 Bft) 91,30 %
30.07.2021 09:49 22,8 C 30,0 C 54 % 1012,5 hPa 0,0 l/m 1,6 km/h (1 Bft) S-SW 202 0,000 mm 3,2 UV-I 737 W/m 13,0 C 22,8 C 3,2 km/h (1 Bft) 91,30 %
30.07.2021 09:48 22,8 C 30,0 C 64 % 1012,6 hPa 0,0 l/m 4,8 km/h (1 Bft) S-SW 202 0,000 mm 2,8 UV-I 737 W/m 15,6 C 22,8 C 9,7 km/h (2 Bft) 95,65 %
30.07.2021 09:47 22,6 C 29,4 C 64 % 1012,6 hPa 0,0 l/m 6,4 km/h (2 Bft) S-SW 202 0,000 mm 2,7 UV-I 737 W/m 15,4 C 22,6 C 8,0 km/h (2 Bft) 95,65 %
30.07.2021 09:46 22,6 C 28,9 C 62 % 1012,5 hPa 0,0 l/m 6,4 km/h (2 Bft) S-SW 202 0,000 mm 2,6 UV-I 519 W/m 14,9 C 22,6 C 8,0 km/h (2 Bft) 86,96 %
30.07.2021 09:45 22,5 C 28,9 C 62 % 1012,6 hPa 0,0 l/m 4,8 km/h (1 Bft) SW 225 0,000 mm 3,2 UV-I 519 W/m 14,8 C 22,5 C 6,4 km/h (2 Bft) 95,65 %
30.07.2021 09:44 22,6 C 28,9 C 60 % 1012,7 hPa 0,0 l/m 8,0 km/h (2 Bft) SW 225 0,000 mm 2,2 UV-I 780 W/m 14,4 C 22,1 C 12,9 km/h (3 Bft) 86,96 %
30.07.2021 09:43 22,6 C 29,4 C 60 % 1012,6 hPa 0,0 l/m 8,0 km/h (2 Bft) SW 225 0,000 mm 2,2 UV-I 780 W/m 14,4 C 22,1 C 12,9 km/h (3 Bft) 91,30 %
30.07.2021 09:42 22,6 C 29,4 C 61 % 1012,6 hPa 0,0 l/m 6,4 km/h (2 Bft) SW 225 0,000 mm 3,1 UV-I 780 W/m 14,7 C 22,6 C 11,3 km/h (2 Bft) 95,65 %
30.07.2021 09:41 22,5 C 30,0 C 60 % 1012,7 hPa 0,0 l/m 6,4 km/h (2 Bft) W-SW 247 0,000 mm 2,2 UV-I 780 W/m 14,3 C 22,5 C 9,7 km/h (2 Bft) 95,65 %
30.07.2021 09:40 22,4 C 29,4 C 64 % 1012,7 hPa 0,0 l/m 4,8 km/h (1 Bft) W-SW 247 0,000 mm 2,7 UV-I 780 W/m 15,2 C 22,4 C 11,3 km/h (2 Bft) 95,65 %
30.07.2021 09:39 22,3 C 28,9 C 63 % 1012,6 hPa 0,0 l/m 6,4 km/h (2 Bft) W-SW 247 0,000 mm 3,1 UV-I 780 W/m 14,9 C 22,3 C 9,7 km/h (2 Bft) 100,00 %
30.07.2021 09:38 22,2 C 28,3 C 64 % 1012,7 hPa 0,0 l/m 6,4 km/h (2 Bft) W-SW 247 0,000 mm 2,2 UV-I 283 W/m 15,1 C 22,2 C 9,7 km/h (2 Bft) 95,65 %
30.07.2021 09:37 22,2 C 28,3 C 68 % 1012,7 hPa 0,0 l/m 6,4 km/h (2 Bft) SW 225 0,000 mm 2,1 UV-I 271 W/m 16,0 C 22,2 C 9,7 km/h (2 Bft) 91,30 %
30.07.2021 09:36 22,1 C 28,9 C 67 % 1012,6 hPa 0,0 l/m 3,2 km/h (1 Bft) W-NW 292 0,000 mm 2,1 UV-I 251 W/m 15,7 C 22,1 C 6,4 km/h (2 Bft) 100,00 %
30.07.2021 09:35 22,1 C 28,9 C 73 % 1012,6 hPa 0,0 l/m 3,2 km/h (1 Bft) W 270 0,000 mm 2,4 UV-I 652 W/m 17,0 C 22,1 C 3,2 km/h (1 Bft) 95,65 %
30.07.2021 09:34 22,1 C 30,0 C 73 % 1012,6 hPa 0,0 l/m 1,6 km/h (1 Bft) N-NW 337 0,000 mm 1,9 UV-I 652 W/m 17,0 C 22,1 C 3,2 km/h (1 Bft) 95,65 %
30.07.2021 09:33 22,1 C 30,0 C 72 % 1012,6 hPa 0,0 l/m 0,0 km/h (0 Bft) N-NW 337 0,000 mm 2,7 UV-I 652 W/m 16,8 C 22,1 C 1,6 km/h (1 Bft) 100,00 %
30.07.2021 09:32 22,0 C 29,4 C 74 % 1012,7 hPa 0,0 l/m 1,6 km/h (1 Bft) N-NW 337 0,000 mm 2,7 UV-I 642 W/m 17,1 C 22,0 C 4,8 km/h (1 Bft) 91,30 %
30.07.2021 09:31 21,9 C 28,9 C 77 % 1012,6 hPa 0,0 l/m 1,6 km/h (1 Bft) N-NW 337 0,000 mm 2,6 UV-I 636 W/m 17,7 C 21,9 C 3,2 km/h (1 Bft) 91,30 %
30.07.2021 09:30 21,9 C 28,9 C 77 % 1012,7 hPa 0,0 l/m 4,8 km/h (1 Bft) N-NO 22 0,000 mm 2,3 UV-I 636 W/m 17,7 C 21,9 C 6,4 km/h (2 Bft) 100,00 %
30.07.2021 09:29 22,0 C 29,4 C 77 % 1012,7 hPa 0,0 l/m 1,6 km/h (1 Bft) NO 45 0,000 mm 2,4 UV-I 636 W/m 17,8 C 22,0 C 3,2 km/h (1 Bft) 95,65 %
30.07.2021 09:28 22,1 C 30,6 C 76 % 1012,6 hPa 0,0 l/m 3,2 km/h (1 Bft) NO 45 0,000 mm 1,7 UV-I 636 W/m 17,7 C 22,1 C 6,4 km/h (2 Bft) 95,65 %
30.07.2021 09:27 22,1 C 31,1 C 78 % 1012,7 hPa 0,0 l/m 3,2 km/h (1 Bft) O-NO 67 0,000 mm 2,5 UV-I 636 W/m 18,1 C 22,1 C 3,2 km/h (1 Bft) 100,00 %
30.07.2021 09:26 21,9 C 31,7 C 75 % 1012,6 hPa 0,0 l/m 4,8 km/h (1 Bft) O-NO 67 0,000 mm 2,5 UV-I 636 W/m 17,3 C 21,9 C 4,8 km/h (1 Bft) 91,30 %
30.07.2021 09:25 21,9 C 31,1 C 77 % 1012,6 hPa 0,0 l/m 3,2 km/h (1 Bft) O-NO 67 0,000 mm 2,5 UV-I 603 W/m 17,7 C 21,9 C 6,4 km/h (2 Bft) 95,65 %
30.07.2021 09:24 21,9 C 31,1 C 77 % 1012,7 hPa 0,0 l/m 3,2 km/h (1 Bft) O-NO 67 0,000 mm 2,5 UV-I 566 W/m 17,7 C 21,9 C 4,8 km/h (1 Bft) 100,00 %
30.07.2021 09:23 21,8 C 31,1 C 77 % 1012,7 hPa 0,0 l/m 3,2 km/h (1 Bft) O-NO 67 0,000 mm 2,5 UV-I 599 W/m 17,6 C 21,8 C 4,8 km/h (1 Bft) 95,65 %
30.07.2021 09:22 21,7 C 30,6 C 79 % 1012,7 hPa 0,0 l/m 4,8 km/h (1 Bft) O-NO 67 0,000 mm 2,4 UV-I 573 W/m 17,9 C 21,7 C 6,4 km/h (2 Bft) 95,65 %
30.07.2021 09:21 21,6 C 30,6 C 78 % 1012,7 hPa 0,0 l/m 3,2 km/h (1 Bft) O-NO 67 0,000 mm 2,4 UV-I 573 W/m 17,6 C 21,6 C 4,8 km/h (1 Bft) 100,00 %
30.07.2021 09:20 21,5 C 30,6 C 78 % 1012,8 hPa 0,0 l/m 1,6 km/h (1 Bft) O-NO 67 0,000 mm 2,3 UV-I 575 W/m 17,5 C 21,5 C 3,2 km/h (1 Bft) 95,65 %
30.07.2021 09:19 21,4 C 30,0 C 76 % 1012,7 hPa 0,0 l/m 0,0 km/h (0 Bft) O-NO 67 0,000 mm 2,4 UV-I 575 W/m 17,0 C 21,4 C 1,6 km/h (1 Bft) 95,65 %
30.07.2021 09:18 21,4 C 30,0 C 79 % 1012,7 hPa 0,0 l/m 1,6 km/h (1 Bft) O-NO 67 0,000 mm 2,3 UV-I 568 W/m 17,6 C 21,4 C 3,2 km/h (1 Bft) 91,30 %
30.07.2021 09:17 21,4 C 29,4 C 79 % 1012,7 hPa 0,0 l/m 1,6 km/h (1 Bft) O-NO 67 0,000 mm 2,3 UV-I 561 W/m 17,6 C 21,4 C 3,2 km/h (1 Bft) 100,00 %
30.07.2021 09:16 21,3 C 28,9 C 81 % 1012,7 hPa 0,0 l/m 3,2 km/h (1 Bft) O-NO 67 0,000 mm 2,3 UV-I 554 W/m 17,9 C 21,3 C 4,8 km/h (1 Bft) 95,65 %
30.07.2021 09:15 21,2 C 28,9 C 78 % 1012,6 hPa 0,0 l/m 3,2 km/h (1 Bft) O-NO 67 0,000 mm 2,3 UV-I 543 W/m 17,2 C 21,2 C 4,8 km/h (1 Bft) 95,65 %
30.07.2021 09:14 21,2 C 28,9 C 76 % 1012,7 hPa 0,0 l/m 3,2 km/h (1 Bft) O-NO 67 0,000 mm 2,2 UV-I 543 W/m 16,8 C 21,2 C 4,8 km/h (1 Bft) 100,00 %
30.07.2021 09:13 21,2 C 28,9 C 78 % 1012,6 hPa 0,0 l/m 4,8 km/h (1 Bft) O-NO 67 0,000 mm 2,2 UV-I 533 W/m 17,2 C 21,2 C 6,4 km/h (2 Bft) 95,65 %
30.07.2021 09:12 21,1 C 28,3 C 78 % 1012,6 hPa 0,0 l/m 3,2 km/h (1 Bft) O-NO 67 0,000 mm 2,1 UV-I 527 W/m 17,1 C 21,1 C 6,4 km/h (2 Bft) 95,65 %
30.07.2021 09:11 21,1 C 28,3 C 77 % 1012,6 hPa 0,0 l/m 3,2 km/h (1 Bft) O-NO 67 0,000 mm 2,2 UV-I 531 W/m 16,9 C 21,1 C 4,8 km/h (1 Bft) 100,00 %
30.07.2021 09:10 21,1 C 27,8 C 78 % 1012,7 hPa 0,0 l/m 4,8 km/h (1 Bft) O-NO 67 0,000 mm 2,2 UV-I 533 W/m 17,1 C 21,1 C 4,8 km/h (1 Bft) 91,30 %
30.07.2021 09:09 21,1 C 27,2 C 78 % 1012,7 hPa 0,0 l/m 4,8 km/h (1 Bft) O-NO 67 0,000 mm 2,2 UV-I 531 W/m 17,1 C 21,1 C 8,0 km/h (2 Bft) 95,65 %
30.07.2021 09:08 21,2 C 27,2 C 78 % 1012,5 hPa 0,0 l/m 3,2 km/h (1 Bft) NO 45 0,000 mm 1,8 UV-I 506 W/m 17,2 C 21,2 C 6,4 km/h (2 Bft) 100,00 %
30.07.2021 09:07 21,1 C 27,8 C 78 % 1012,6 hPa 0,0 l/m 0,0 km/h (0 Bft) N 0 0,000 mm 1,5 UV-I 506 W/m 17,1 C 21,1 C 0,0 km/h (0 Bft) 95,65 %
30.07.2021 09:06 21,1 C 28,3 C 78 % 1012,7 hPa 0,0 l/m 0,0 km/h (0 Bft) O-NO 67 0,000 mm 1,6 UV-I 557 W/m 17,1 C 21,1 C 3,2 km/h (1 Bft) 95,65 %
30.07.2021 09:05 21,1 C 27,8 C 78 % 1012,6 hPa 0,0 l/m 3,2 km/h (1 Bft) O-NO 67 0,000 mm 2,1 UV-I 557 W/m 17,1 C 21,1 C 4,8 km/h (1 Bft) 95,65 %
30.07.2021 09:04 21,1 C 27,8 C 80 % 1012,7 hPa 0,0 l/m 4,8 km/h (1 Bft) O-NO 67 0,000 mm 2,1 UV-I 559 W/m 17,5 C 21,1 C 6,4 km/h (2 Bft) 95,65 %
30.07.2021 09:03 21,1 C 27,2 C 79 % 1012,7 hPa 0,0 l/m 3,2 km/h (1 Bft) O 90 0,000 mm 2,1 UV-I 559 W/m 17,3 C 21,1 C 6,4 km/h (2 Bft) 95,65 %
30.07.2021 09:02 21,1 C 27,2 C 79 % 1012,7 hPa 0,0 l/m 4,8 km/h (1 Bft) O 90 0,000 mm 2,1 UV-I 538 W/m 17,3 C 21,1 C 6,4 km/h (2 Bft) 100,00 %
30.07.2021 09:01 21,0 C 27,2 C 78 % 1012,7 hPa 0,0 l/m 3,2 km/h (1 Bft) O-NO 67 0,000 mm 2,0 UV-I 526 W/m 17,0 C 21,0 C 6,4 km/h (2 Bft) 95,65 %
30.07.2021 09:00 21,0 C 27,2 C 80 % 1012,7 hPa 0,0 l/m 4,8 km/h (1 Bft) O-NO 67 0,229 mm 2,0 UV-I 513 W/m 17,4 C 21,0 C 6,4 km/h (2 Bft) 95,65 %
30.07.2021 08:59 21,0 C 27,2 C 78 % 1012,7 hPa 0,0 l/m 4,8 km/h (1 Bft) O-NO 67 0,000 mm 2,0 UV-I 506 W/m 17,0 C 21,0 C 6,4 km/h (2 Bft) 100,00 %
30.07.2021 08:58 21,0 C 27,2 C 79 % 1012,7 hPa 0,0 l/m 4,8 km/h (1 Bft) O-NO 67 0,000 mm 1,9 UV-I 503 W/m 17,2 C 21,0 C 6,4 km/h (2 Bft) 95,65 %
30.07.2021 08:57 21,0 C 27,2 C 78 % 1012,7 hPa 0,0 l/m 6,4 km/h (2 Bft) O-NO 67 0,000 mm 1,9 UV-I 497 W/m 17,0 C 21,0 C 8,0 km/h (2 Bft) 95,65 %
30.07.2021 08:56 20,9 C 27,2 C 80 % 1012,7 hPa 0,0 l/m 4,8 km/h (1 Bft) O-NO 67 0,000 mm 1,9 UV-I 489 W/m 17,3 C 20,9 C 6,4 km/h (2 Bft) 100,00 %
30.07.2021 08:55 20,9 C 27,2 C 80 % 1012,7 hPa 0,0 l/m 3,2 km/h (1 Bft) O-NO 67 0,000 mm 1,9 UV-I 487 W/m 17,3 C 20,9 C 4,8 km/h (1 Bft) 95,65 %
30.07.2021 08:54 20,8 C 26,7 C 80 % 1012,7 hPa 0,0 l/m 4,8 km/h (1 Bft) O-NO 67 0,000 mm 1,8 UV-I 483 W/m 17,2 C 20,8 C 6,4 km/h (2 Bft) 95,65 %
30.07.2021 08:53 20,8 C 26,7 C 78 % 1012,7 hPa 0,0 l/m 3,2 km/h (1 Bft) O-NO 67 0,000 mm 1,8 UV-I 482 W/m 16,8 C 20,8 C 6,4 km/h (2 Bft) 100,00 %
30.07.2021 08:52 20,8 C 26,7 C 77 % 1012,8 hPa 0,0 l/m 1,6 km/h (1 Bft) O-NO 67 0,000 mm 1,8 UV-I 478 W/m 16,6 C 20,8 C 4,8 km/h (1 Bft) 91,30 %
30.07.2021 08:51 20,9 C 26,7 C 79 % 1012,7 hPa 0,0 l/m 3,2 km/h (1 Bft) O-NO 67 0,000 mm 1,8 UV-I 476 W/m 17,1 C 20,9 C 11,3 km/h (2 Bft) 95,65 %
30.07.2021 08:50 20,8 C 26,1 C 79 % 1012,7 hPa 0,0 l/m 6,4 km/h (2 Bft) O-NO 67 0,000 mm 1,7 UV-I 473 W/m 17,0 C 20,8 C 8,0 km/h (2 Bft) 100,00 %
30.07.2021 08:49 20,8 C 25,6 C 79 % 1012,7 hPa 0,0 l/m 6,4 km/h (2 Bft) O-NO 67 0,000 mm 1,7 UV-I 471 W/m 17,0 C 20,8 C 11,3 km/h (2 Bft) 95,65 %
30.07.2021 08:48 20,8 C 25,6 C 79 % 1012,7 hPa 0,0 l/m 4,8 km/h (1 Bft) O-NO 67 0,000 mm 1,7 UV-I 468 W/m 17,0 C 20,8 C 6,4 km/h (2 Bft) 91,30 %
30.07.2021 08:47 20,7 C 25,0 C 78 % 1012,7 hPa 0,0 l/m 6,4 km/h (2 Bft) O-NO 67 0,000 mm 1,7 UV-I 466 W/m 16,7 C 20,7 C 8,0 km/h (2 Bft) 100,00 %
30.07.2021 08:46 20,7 C 24,4 C 78 % 1012,7 hPa 0,0 l/m 4,8 km/h (1 Bft) O-NO 67 0,000 mm 1,7 UV-I 464 W/m 16,7 C 20,7 C 6,4 km/h (2 Bft) 95,65 %
30.07.2021 08:45 20,7 C 24,4 C 79 % 1012,7 hPa 0,0 l/m 4,8 km/h (1 Bft) O-NO 67 0,000 mm 1,6 UV-I 462 W/m 16,9 C 20,7 C 9,7 km/h (2 Bft) 95,65 %
30.07.2021 08:44 20,7 C 23,9 C 79 % 1012,7 hPa 0,0 l/m 4,8 km/h (1 Bft) NO 45 0,000 mm 1,6 UV-I 455 W/m 16,9 C 20,7 C 6,4 km/h (2 Bft) 100,00 %
30.07.2021 08:43 20,6 C 23,3 C 80 % 1012,7 hPa 0,0 l/m 3,2 km/h (1 Bft) O-NO 67 0,000 mm 1,6 UV-I 455 W/m 17,0 C 20,6 C 4,8 km/h (1 Bft) 95,65 %
30.07.2021 08:42 20,6 C 22,8 C 80 % 1012,6 hPa 0,0 l/m 3,2 km/h (1 Bft) O-NO 67 0,000 mm 1,6 UV-I 450 W/m 17,0 C 20,6 C 6,4 km/h (2 Bft) 91,30 %
30.07.2021 08:41 20,6 C 22,2 C 80 % 1012,6 hPa 0,0 l/m 3,2 km/h (1 Bft) O-NO 67 0,000 mm 1,6 UV-I 448 W/m 17,0 C 20,6 C 6,4 km/h (2 Bft) 100,00 %
30.07.2021 08:40 20,4 C 21,7 C 80 % 1012,6 hPa 0,0 l/m 4,8 km/h (1 Bft) O-NO 67 0,000 mm 1,5 UV-I 445 W/m 16,8 C 20,4 C 4,8 km/h (1 Bft) 95,65 %
30.07.2021 08:39 20,4 C 21,1 C 80 % 1012,6 hPa 0,0 l/m 4,8 km/h (1 Bft) O 90 0,000 mm 1,5 UV-I 439 W/m 16,8 C 20,4 C 6,4 km/h (2 Bft) 86,96 %
30.07.2021 08:38 20,4 C 20,6 C 79 % 1012,6 hPa 0,0 l/m 6,4 km/h (2 Bft) O-NO 67 0,000 mm 1,5 UV-I 438 W/m 16,6 C 20,4 C 9,7 km/h (2 Bft) 95,65 %
30.07.2021 08:37 20,3 C 20,0 C 79 % 1012,6 hPa 0,0 l/m 4,8 km/h (1 Bft) O-NO 67 0,000 mm 1,5 UV-I 436 W/m 16,5 C 20,3 C 9,7 km/h (2 Bft) 95,65 %
30.07.2021 08:36 20,2 C 19,4 C 79 % 1012,6 hPa 0,0 l/m 4,8 km/h (1 Bft) O-NO 67 0,000 mm 1,5 UV-I 434 W/m 16,4 C 20,2 C 6,4 km/h (2 Bft) 95,65 %
30.07.2021 08:35 20,2 C 18,9 C 78 % 1012,7 hPa 0,0 l/m 6,4 km/h (2 Bft) O-NO 67 0,000 mm 1,4 UV-I 429 W/m 16,2 C 20,2 C 6,4 km/h (2 Bft) 100,00 %
30.07.2021 08:34 20,2 C 18,9 C 79 % 1012,6 hPa 0,0 l/m 6,4 km/h (2 Bft) O-NO 67 0,000 mm 1,4 UV-I 427 W/m 16,4 C 20,2 C 8,0 km/h (2 Bft) 95,65 %
30.07.2021 08:33 20,3 C 18,3 C 79 % 1012,6 hPa 0,0 l/m 4,8 km/h (1 Bft) O-NO 67 0,000 mm 1,4 UV-I 424 W/m 16,5 C 20,3 C 8,0 km/h (2 Bft) 95,65 %
30.07.2021 08:32 20,3 C 18,3 C 78 % 1012,6 hPa 0,0 l/m 6,4 km/h (2 Bft) O-NO 67 0,000 mm 1,4 UV-I 418 W/m 16,3 C 20,3 C 9,7 km/h (2 Bft) 100,00 %
30.07.2021 08:31 20,3 C 17,8 C 79 % 1012,6 hPa 0,0 l/m 4,8 km/h (1 Bft) O-NO 67 0,000 mm 1,4 UV-I 417 W/m 16,5 C 20,3 C 9,7 km/h (2 Bft) 95,65 %
30.07.2021 08:30 20,4 C 17,8 C 79 % 1012,7 hPa 0,0 l/m 4,8 km/h (1 Bft) O-NO 67 0,000 mm 1,4 UV-I 413 W/m 16,6 C 20,4 C 8,0 km/h (2 Bft) 95,65 %
30.07.2021 08:29 20,4 C 17,8 C 79 % 1012,6 hPa 0,0 l/m 4,8 km/h (1 Bft) O-NO 67 0,000 mm 1,3 UV-I 411 W/m 16,6 C 20,4 C 8,0 km/h (2 Bft) 95,65 %
30.07.2021 08:28 20,5 C 17,2 C 79 % 1012,6 hPa 0,0 l/m 3,2 km/h (1 Bft) O-NO 67 0,000 mm 1,3 UV-I 410 W/m 16,7 C 20,5 C 4,8 km/h (1 Bft) 100,00 %
30.07.2021 08:27 20,6 C 17,2 C 78 % 1012,6 hPa 0,0 l/m 3,2 km/h (1 Bft) O-NO 67 0,000 mm 1,3 UV-I 403 W/m 16,6 C 20,6 C 6,4 km/h (2 Bft) 86,96 %
30.07.2021 08:26 20,6 C 17,2 C 78 % 1012,6 hPa 0,0 l/m 0,0 km/h (0 Bft) N 0 0,000 mm 1,3 UV-I 401 W/m 16,6 C 20,6 C 0,0 km/h (0 Bft) 95,65 %
30.07.2021 08:25 20,6 C 17,2 C 76 % 1012,7 hPa 0,0 l/m 0,0 km/h (0 Bft) N 0 0,000 mm 1,3 UV-I 399 W/m 16,2 C 20,6 C 0,0 km/h (0 Bft) 91,30 %
30.07.2021 08:24 20,7 C 17,2 C 74 % 1012,6 hPa 0,0 l/m 0,0 km/h (0 Bft) N 0 0,000 mm 1,2 UV-I 397 W/m 15,9 C 20,7 C 0,0 km/h (0 Bft) 91,30 %
30.07.2021 08:23 20,6 C 17,2 C 75 % 1012,7 hPa 0,0 l/m 0,0 km/h (0 Bft) N 0 0,000 mm 1,2 UV-I 394 W/m 16,0 C 20,6 C 0,0 km/h (0 Bft) 86,96 %
30.07.2021 08:22 20,6 C 17,2 C 77 % 1012,6 hPa 0,0 l/m 0,0 km/h (0 Bft) N 0 0,000 mm 1,2 UV-I 392 W/m 16,4 C 20,6 C 0,0 km/h (0 Bft) 100,00 %
30.07.2021 08:21 20,6 C 17,2 C 76 % 1012,7 hPa 0,0 l/m 0,0 km/h (0 Bft) N 0 0,000 mm 1,2 UV-I 385 W/m 16,2 C 20,6 C 0,0 km/h (0 Bft) 86,96 %
30.07.2021 08:20 20,5 C 17,2 C 77 % 1012,7 hPa 0,0 l/m 0,0 km/h (0 Bft) N 0 0,000 mm 1,2 UV-I 380 W/m 16,3 C 20,5 C 0,0 km/h (0 Bft) 95,65 %
30.07.2021 08:19 20,4 C 17,2 C 79 % 1012,6 hPa 0,0 l/m 0,0 km/h (0 Bft) N 0 0,000 mm 1,1 UV-I 371 W/m 16,6 C 20,4 C 0,0 km/h (0 Bft) 91,30 %
30.07.2021 08:18 20,3 C 17,2 C 79 % 1012,6 hPa 0,0 l/m 0,0 km/h (0 Bft) N 0 0,000 mm 1,1 UV-I 366 W/m 16,5 C 20,3 C 0,0 km/h (0 Bft) 91,30 %
30.07.2021 08:17 20,2 C 17,2 C 79 % 1012,6 hPa 0,0 l/m 0,0 km/h (0 Bft) N 0 0,000 mm 1,1 UV-I 357 W/m 16,4 C 20,2 C 0,0 km/h (0 Bft) 86,96 %
30.07.2021 08:16 20,2 C 16,7 C 79 % 1012,7 hPa 0,0 l/m 0,0 km/h (0 Bft) N 0 0,000 mm 1,1 UV-I 357 W/m 16,4 C 20,2 C 0,0 km/h (0 Bft) 91,30 %
30.07.2021 08:15 20,1 C 16,7 C 79 % 1012,6 hPa 0,0 l/m 0,0 km/h (0 Bft) N 0 0,000 mm 1,1 UV-I 350 W/m 16,3 C 20,1 C 0,0 km/h (0 Bft) 86,96 %
30.07.2021 08:14 20,1 C 16,7 C 80 % 1012,6 hPa 0,0 l/m 0,0 km/h (0 Bft) N 0 0,000 mm 1,0 UV-I 345 W/m 16,5 C 20,1 C 0,0 km/h (0 Bft) 86,96 %
30.07.2021 08:13 20,0 C 16,7 C 82 % 1012,6 hPa 0,0 l/m 0,0 km/h (0 Bft) N 0 0,000 mm 1,0 UV-I 341 W/m 16,8 C 20,0 C 0,0 km/h (0 Bft) 100,00 %
30.07.2021 08:12 19,8 C 16,7 C 80 % 1012,5 hPa 0,0 l/m 0,0 km/h (0 Bft) N 0 0,000 mm 1,0 UV-I 338 W/m 16,2 C 19,8 C 0,0 km/h (0 Bft) 82,61 %
30.07.2021 08:11 19,7 C 16,7 C 81 % 1012,6 hPa 0,0 l/m 0,0 km/h (0 Bft) N 0 0,000 mm 1,0 UV-I 334 W/m 16,3 C 19,7 C 0,0 km/h (0 Bft) 95,65 %
30.07.2021 08:10 19,6 C 16,7 C 84 % 1012,5 hPa 0,0 l/m 0,0 km/h (0 Bft) N 0 0,000 mm 0,9 UV-I 330 W/m 16,8 C 19,6 C 0,0 km/h (0 Bft) 91,30 %
30.07.2021 08:09 19,6 C 16,7 C 85 % 1012,5 hPa 0,0 l/m 0,0 km/h (0 Bft) N 0 0,000 mm 0,9 UV-I 316 W/m 17,0 C 19,6 C 0,0 km/h (0 Bft) 95,65 %
30.07.2021 08:08 19,5 C 16,7 C 85 % 1012,5 hPa 0,0 l/m 0,0 km/h (0 Bft) N 0 0,000 mm 0,8 UV-I 121 W/m 16,9 C 19,5 C 0,0 km/h (0 Bft) 86,96 %
30.07.2021 08:07 19,4 C 16,7 C 85 % 1012,5 hPa 0,0 l/m 0,0 km/h (0 Bft) N 0 0,000 mm 0,7 UV-I 121 W/m 16,8 C 19,4 C 0,0 km/h (0 Bft) 100,00 %
30.07.2021 08:06 19,3 C 16,7 C 85 % 1012,6 hPa 0,0 l/m 0,0 km/h (0 Bft) N 0 0,000 mm 0,7 UV-I 81 W/m 16,7 C 19,3 C 0,0 km/h (0 Bft) 78,26 %
30.07.2021 08:05 19,3 C 16,7 C 85 % 1012,6 hPa 0,0 l/m 0,0 km/h (0 Bft) N 0 0,000 mm 0,7 UV-I 95 W/m 16,7 C 19,3 C 0,0 km/h (0 Bft) 91,30 %
30.07.2021 08:04 19,2 C 16,7 C 84 % 1012,6 hPa 0,0 l/m 0,0 km/h (0 Bft) N 0 0,000 mm 0,6 UV-I 83 W/m 16,4 C 19,2 C 0,0 km/h (0 Bft) 95,65 %
30.07.2021 08:03 19,2 C 16,1 C 85 % 1012,6 hPa 0,0 l/m 0,0 km/h (0 Bft) N 0 0,000 mm 0,0 UV-I 51 W/m 16,6 C 19,2 C 0,0 km/h (0 Bft) 86,96 %
30.07.2021 08:02 19,1 C 16,1 C 84 % 1012,5 hPa 0,0 l/m 0,0 km/h (0 Bft) N 0 0,000 mm 0,0 UV-I 49 W/m 16,3 C 19,1 C 0,0 km/h (0 Bft) 95,65 %
30.07.2021 08:01 19,1 C 16,1 C 85 % 1012,6 hPa 0,0 l/m 0,0 km/h (0 Bft) N 0 0,000 mm 0,0 UV-I 47 W/m 16,5 C 19,1 C 0,0 km/h (0 Bft) 91,30 %
30.07.2021 08:00 19,0 C 16,1 C 85 % 1012,6 hPa 0,0 l/m 0,0 km/h (0 Bft) N 0 0,025 mm 0,0 UV-I 49 W/m 16,4 C 19,0 C 0,0 km/h (0 Bft) 95,65 %
30.07.2021 07:59 18,9 C 16,1 C 84 % 1012,5 hPa 0,0 l/m 0,0 km/h (0 Bft) N 0 0,000 mm 0,0 UV-I 46 W/m 16,1 C 18,9 C 0,0 km/h (0 Bft) 86,96 %
30.07.2021 07:58 18,9 C 16,1 C 84 % 1012,6 hPa 0,0 l/m 0,0 km/h (0 Bft) N 0 0,000 mm 0,0 UV-I 46 W/m 16,1 C 18,9 C 0,0 km/h (0 Bft) 100,00 %
30.07.2021 07:57 18,9 C 16,1 C 84 % 1012,6 hPa 0,0 l/m 0,0 km/h (0 Bft) N 0 0,000 mm 0,0 UV-I 42 W/m 16,1 C 18,9 C 0,0 km/h (0 Bft) 86,96 %
30.07.2021 07:56 18,8 C 16,1 C 84 % 1012,6 hPa 0,0 l/m 0,0 km/h (0 Bft) N 0 0,000 mm 0,0 UV-I 42 W/m 16,0 C 18,8 C 0,0 km/h (0 Bft) 95,65 %
30.07.2021 07:55 18,8 C 16,1 C 84 % 1012,7 hPa 0,0 l/m 0,0 km/h (0 Bft) N 0 0,000 mm 0,0 UV-I 42 W/m 16,0 C 18,8 C 0,0 km/h (0 Bft) 100,00 %
30.07.2021 07:54 18,8 C 16,1 C 84 % 1012,7 hPa 0,0 l/m 0,0 km/h (0 Bft) N 0 0,000 mm 0,0 UV-I 40 W/m 16,0 C 18,8 C 0,0 km/h (0 Bft) 95,65 %
30.07.2021 07:53 18,7 C 16,1 C 84 % 1012,7 hPa 0,0 l/m 0,0 km/h (0 Bft) N 0 0,000 mm 0,0 UV-I 40 W/m 15,9 C 18,7 C 0,0 km/h (0 Bft) 95,65 %
30.07.2021 07:52 18,6 C 16,1 C 84 % 1012,7 hPa 0,0 l/m 0,0 km/h (0 Bft) N 0 0,000 mm 0,0 UV-I 40 W/m 15,8 C 18,6 C 0,0 km/h (0 Bft) 100,00 %
30.07.2021 07:51 18,6 C 16,1 C 84 % 1012,7 hPa 0,0 l/m 0,0 km/h (0 Bft) N 0 0,000 mm 0,0 UV-I 40 W/m 15,8 C 18,6 C 0,0 km/h (0 Bft) 95,65 %
30.07.2021 07:50 18,4 C 16,1 C 84 % 1012,7 hPa 0,0 l/m 0,0 km/h (0 Bft) N 0 0,000 mm 0,0 UV-I 40 W/m 15,6 C 18,4 C 0,0 km/h (0 Bft) 95,65 %
30.07.2021 07:49 18,4 C 16,1 C 84 % 1012,7 hPa 0,0 l/m 0,0 km/h (0 Bft) N 0 0,000 mm 0,0 UV-I 40 W/m 15,6 C 18,4 C 0,0 km/h (0 Bft) 95,65 %
30.07.2021 07:48 18,3 C 16,1 C 84 % 1012,7 hPa 0,0 l/m 0,0 km/h (0 Bft) N 0 0,000 mm 0,0 UV-I 40 W/m 15,5 C 18,3 C 0,0 km/h (0 Bft) 86,96 %
30.07.2021 07:47 18,3 C 16,7 C 85 % 1012,7 hPa 0,0 l/m 0,0 km/h (0 Bft) N 0 0,000 mm 0,0 UV-I 40 W/m 15,7 C 18,3 C 0,0 km/h (0 Bft) 95,65 %
30.07.2021 07:46 18,2 C 16,7 C 85 % 1012,7 hPa 0,0 l/m 0,0 km/h (0 Bft) N 0 0,000 mm 0,0 UV-I 40 W/m 15,6 C 18,2 C 0,0 km/h (0 Bft) 95,65 %
30.07.2021 07:45 18,2 C 16,7 C 85 % 1012,8 hPa 0,0 l/m 0,0 km/h (0 Bft) O-SO 112 0,000 mm 0,0 UV-I 42 W/m 15,6 C 18,2 C 1,6 km/h (1 Bft) 91,30 %
30.07.2021 07:44 18,2 C 16,7 C 85 % 1012,8 hPa 0,0 l/m 0,0 km/h (0 Bft) O-SO 112 0,000 mm 0,0 UV-I 42 W/m 15,6 C 18,2 C 1,6 km/h (1 Bft) 95,65 %
30.07.2021 07:43 18,3 C 16,7 C 86 % 1012,8 hPa 0,0 l/m 1,6 km/h (1 Bft) O-SO 112 0,000 mm 0,0 UV-I 42 W/m 15,9 C 18,3 C 3,2 km/h (1 Bft) 100,00 %
30.07.2021 07:42 18,2 C 16,7 C 86 % 1012,8 hPa 0,0 l/m 3,2 km/h (1 Bft) O-SO 112 0,000 mm 0,0 UV-I 42 W/m 15,8 C 18,2 C 3,2 km/h (1 Bft) 86,96 %
30.07.2021 07:41 18,1 C 16,7 C 85 % 1012,8 hPa 0,0 l/m 1,6 km/h (1 Bft) O-SO 112 0,000 mm 0,0 UV-I 42 W/m 15,5 C 18,1 C 3,2 km/h (1 Bft) 95,65 %
30.07.2021 07:40 18,1 C 16,7 C 86 % 1012,8 hPa 0,0 l/m 0,0 km/h (0 Bft) N 0 0,000 mm 0,0 UV-I 49 W/m 15,7 C 18,1 C 0,0 km/h (0 Bft) 95,65 %
30.07.2021 07:39 18,0 C 16,7 C 87 % 1012,8 hPa 0,0 l/m 0,0 km/h (0 Bft) SO 135 0,000 mm 0,5 UV-I 56 W/m 15,8 C 18,0 C 1,6 km/h (1 Bft) 100,00 %
30.07.2021 07:38 17,9 C 16,7 C 87 % 1012,8 hPa 0,0 l/m 3,2 km/h (1 Bft) SO 135 0,000 mm 0,0 UV-I 47 W/m 15,7 C 17,9 C 3,2 km/h (1 Bft) 95,65 %
30.07.2021 07:37 17,9 C 16,1 C 88 % 1012,8 hPa 0,0 l/m 1,6 km/h (1 Bft) SO 135 0,000 mm 0,0 UV-I 40 W/m 15,9 C 17,9 C 3,2 km/h (1 Bft) 95,65 %
30.07.2021 07:36 17,8 C 16,1 C 88 % 1012,8 hPa 0,0 l/m 3,2 km/h (1 Bft) SO 135 0,000 mm 0,0 UV-I 39 W/m 15,8 C 17,8 C 4,8 km/h (1 Bft) 95,65 %
30.07.2021 07:35 17,8 C 16,1 C 89 % 1012,8 hPa 0,0 l/m 0,0 km/h (0 Bft) N 0 0,000 mm 0,0 UV-I 39 W/m 16,0 C 17,8 C 0,0 km/h (0 Bft) 95,65 %
30.07.2021 07:34 17,7 C 16,1 C 89 % 1012,8 hPa 0,0 l/m 0,0 km/h (0 Bft) N 0 0,000 mm 0,0 UV-I 40 W/m 15,9 C 17,7 C 0,0 km/h (0 Bft) 95,65 %
30.07.2021 07:33 17,7 C 16,1 C 89 % 1012,8 hPa 0,0 l/m 0,0 km/h (0 Bft) N 0 0,000 mm 0,0 UV-I 40 W/m 15,9 C 17,7 C 0,0 km/h (0 Bft) 100,00 %
30.07.2021 07:32 17,6 C 16,1 C 90 % 1012,8 hPa 0,0 l/m 0,0 km/h (0 Bft) N 0 0,000 mm 0,0 UV-I 39 W/m 15,9 C 17,6 C 0,0 km/h (0 Bft) 95,65 %
30.07.2021 07:31 17,6 C 16,1 C 90 % 1012,8 hPa 0,0 l/m 0,0 km/h (0 Bft) N 0 0,000 mm 0,0 UV-I 39 W/m 15,9 C 17,6 C 0,0 km/h (0 Bft) 95,65 %
30.07.2021 07:30 17,5 C 16,1 C 90 % 1012,8 hPa 0,0 l/m 0,0 km/h (0 Bft) N 0 0,000 mm 0,0 UV-I 39 W/m 15,8 C 17,5 C 0,0 km/h (0 Bft) 100,00 %
30.07.2021 07:29 17,4 C 15,6 C 90 % 1012,9 hPa 0,0 l/m 0,0 km/h (0 Bft) N 0 0,000 mm 0,0 UV-I 40 W/m 15,7 C 17,4 C 0,0 km/h (0 Bft) 95,65 %
30.07.2021 07:28 17,3 C 15,6 C 90 % 1012,9 hPa 0,0 l/m 0,0 km/h (0 Bft) N 0 0,000 mm 0,0 UV-I 39 W/m 15,6 C 17,3 C 0,0 km/h (0 Bft) 95,65 %
30.07.2021 07:27 17,3 C 15,0 C 90 % 1012,9 hPa 0,0 l/m 0,0 km/h (0 Bft) N 0 0,000 mm 0,0 UV-I 37 W/m 15,6 C 17,3 C 0,0 km/h (0 Bft) 100,00 %
30.07.2021 07:26 17,2 C 15,0 C 90 % 1012,9 hPa 0,0 l/m 0,0 km/h (0 Bft) N 0 0,000 mm 0,0 UV-I 37 W/m 15,5 C 17,2 C 0,0 km/h (0 Bft) 95,65 %
30.07.2021 07:25 17,2 C 15,0 C 90 % 1012,8 hPa 0,0 l/m 0,0 km/h (0 Bft) N 0 0,000 mm 0,0 UV-I 37 W/m 15,5 C 17,2 C 0,0 km/h (0 Bft) 95,65 %
30.07.2021 07:24 17,1 C 15,0 C 91 % 1012,8 hPa 0,0 l/m 0,0 km/h (0 Bft) N 0 0,000 mm 0,0 UV-I 37 W/m 15,6 C 17,1 C 0,0 km/h (0 Bft) 100,00 %
30.07.2021 07:23 17,0 C 15,0 C 90 % 1012,8 hPa 0,0 l/m 0,0 km/h (0 Bft) N 0 0,000 mm 0,0 UV-I 37 W/m 15,3 C 17,0 C 0,0 km/h (0 Bft) 95,65 %
30.07.2021 07:22 16,9 C 15,0 C 90 % 1012,8 hPa 0,0 l/m 0,0 km/h (0 Bft) N 0 0,000 mm 0,0 UV-I 37 W/m 15,2 C 16,9 C 0,0 km/h (0 Bft) 95,65 %
30.07.2021 07:21 16,8 C 15,0 C 91 % 1012,8 hPa 0,0 l/m 0,0 km/h (0 Bft) N 0 0,000 mm 0,0 UV-I 37 W/m 15,3 C 16,8 C 0,0 km/h (0 Bft) 95,65 %
30.07.2021 07:20 16,8 C 14,4 C 91 % 1012,8 hPa 0,0 l/m 0,0 km/h (0 Bft) N 0 0,000 mm 0,0 UV-I 37 W/m 15,3 C 16,8 C 0,0 km/h (0 Bft) 91,30 %
30.07.2021 07:19 16,7 C 14,4 C 91 % 1012,9 hPa 0,0 l/m 0,0 km/h (0 Bft) N 0 0,000 mm 0,0 UV-I 37 W/m 15,2 C 16,7 C 0,0 km/h (0 Bft) 95,65 %
30.07.2021 07:18 16,6 C 14,4 C 91 % 1012,8 hPa 0,0 l/m 0,0 km/h (0 Bft) N 0 0,000 mm 0,0 UV-I 35 W/m 15,1 C 16,6 C 0,0 km/h (0 Bft) 100,00 %
30.07.2021 07:17 16,4 C 14,4 C 91 % 1012,8 hPa 0,0 l/m 0,0 km/h (0 Bft) N 0 0,000 mm 0,0 UV-I 35 W/m 14,9 C 16,4 C 0,0 km/h (0 Bft) 91,30 %
30.07.2021 07:16 16,4 C 14,4 C 91 % 1012,8 hPa 0,0 l/m 0,0 km/h (0 Bft) N 0 0,000 mm 0,0 UV-I 35 W/m 14,9 C 16,4 C 0,0 km/h (0 Bft) 95,65 %
30.07.2021 07:15 16,3 C 14,4 C 91 % 1012,8 hPa 0,0 l/m 0,0 km/h (0 Bft) N 0 0,000 mm 0,0 UV-I 37 W/m 14,8 C 16,3 C 0,0 km/h (0 Bft) 100,00 %
30.07.2021 07:14 16,2 C 14,4 C 92 % 1012,8 hPa 0,0 l/m 0,0 km/h (0 Bft) N 0 0,000 mm 0,0 UV-I 39 W/m 14,9 C 16,2 C 0,0 km/h (0 Bft) 91,30 %
30.07.2021 07:13 16,1 C 14,4 C 92 % 1012,7 hPa 0,0 l/m 0,0 km/h (0 Bft) N 0 0,000 mm 0,0 UV-I 39 W/m 14,8 C 16,1 C 0,0 km/h (0 Bft) 95,65 %
30.07.2021 07:12 16,0 C 14,4 C 92 % 1012,7 hPa 0,0 l/m 0,0 km/h (0 Bft) N 0 0,000 mm 0,0 UV-I 39 W/m 14,7 C 16,0 C 0,0 km/h (0 Bft) 100,00 %
30.07.2021 07:11 15,9 C 13,9 C 92 % 1012,7 hPa 0,0 l/m 0,0 km/h (0 Bft) N 0 0,000 mm 0,0 UV-I 35 W/m 14,6 C 15,9 C 0,0 km/h (0 Bft) 86,96 %
30.07.2021 07:10 15,8 C 13,9 C 92 % 1012,8 hPa 0,0 l/m 0,0 km/h (0 Bft) N 0 0,000 mm 0,0 UV-I 35 W/m 14,5 C 15,8 C 0,0 km/h (0 Bft) 95,65 %
30.07.2021 07:09 15,8 C 13,9 C 92 % 1012,7 hPa 0,0 l/m 0,0 km/h (0 Bft) N 0 0,000 mm 0,0 UV-I 33 W/m 14,5 C 15,8 C 0,0 km/h (0 Bft) 100,00 %
30.07.2021 07:08 15,8 C 13,9 C 92 % 1012,7 hPa 0,0 l/m 0,0 km/h (0 Bft) N 0 0,000 mm 0,0 UV-I 33 W/m 14,5 C 15,8 C 0,0 km/h (0 Bft) 95,65 %
30.07.2021 07:07 15,8 C 13,9 C 93 % 1012,7 hPa 0,0 l/m 0,0 km/h (0 Bft) N 0 0,000 mm 0,0 UV-I 33 W/m 14,7 C 15,8 C 0,0 km/h (0 Bft) 91,30 %
30.07.2021 07:06 15,7 C 13,9 C 93 % 1012,7 hPa 0,0 l/m 0,0 km/h (0 Bft) N 0 0,000 mm 0,0 UV-I 33 W/m 14,6 C 15,7 C 0,0 km/h (0 Bft) 95,65 %
30.07.2021 07:05 15,5 C 13,9 C 92 % 1012,7 hPa 0,0 l/m 0,0 km/h (0 Bft) N 0 0,000 mm 0,0 UV-I 33 W/m 14,2 C 15,5 C 0,0 km/h (0 Bft) 95,65 %
30.07.2021 07:04 15,4 C 13,9 C 93 % 1012,7 hPa 0,0 l/m 0,0 km/h (0 Bft) N 0 0,000 mm 0,0 UV-I 33 W/m 14,3 C 15,4 C 0,0 km/h (0 Bft) 95,65 %
30.07.2021 07:03 15,3 C 13,9 C 92 % 1012,7 hPa 0,0 l/m 0,0 km/h (0 Bft) N 0 0,000 mm 0,0 UV-I 33 W/m 14,0 C 15,3 C 0,0 km/h (0 Bft) 100,00 %
30.07.2021 07:02 15,2 C 13,9 C 93 % 1012,7 hPa 0,0 l/m 0,0 km/h (0 Bft) N 0 0,000 mm 0,0 UV-I 35 W/m 14,1 C 15,2 C 0,0 km/h (0 Bft) 91,30 %
30.07.2021 07:01 15,1 C 13,9 C 93 % 1012,8 hPa 0,0 l/m 0,0 km/h (0 Bft) N 0 0,000 mm 0,0 UV-I 35 W/m 14,0 C 15,1 C 0,0 km/h (0 Bft) 95,65 %
30.07.2021 07:00 15,0 C 13,9 C 93 % 1012,8 hPa 0,0 l/m 0,0 km/h (0 Bft) SW 225 0,025 mm 0,0 UV-I 33 W/m 13,9 C 15,0 C 1,6 km/h (1 Bft) 95,65 %
30.07.2021 06:59 14,9 C 13,9 C 93 % 1012,8 hPa 0,0 l/m 0,0 km/h (0 Bft) SW 225 0,000 mm 0,0 UV-I 32 W/m 13,8 C 14,9 C 1,6 km/h (1 Bft) 86,96 %
30.07.2021 06:58 14,8 C 13,9 C 93 % 1012,8 hPa 0,0 l/m 1,6 km/h (1 Bft) SW 225 0,000 mm 0,0 UV-I 32 W/m 13,7 C 14,8 C 1,6 km/h (1 Bft) 91,30 %
30.07.2021 06:57 14,7 C 13,9 C 93 % 1012,8 hPa 0,0 l/m 1,6 km/h (1 Bft) SW 225 0,000 mm 0,0 UV-I 32 W/m 13,6 C 14,7 C 1,6 km/h (1 Bft) 95,65 %
30.07.2021 06:56 14,7 C 13,9 C 93 % 1012,8 hPa 0,0 l/m 1,6 km/h (1 Bft) SW 225 0,000 mm 0,0 UV-I 32 W/m 13,6 C 14,7 C 3,2 km/h (1 Bft) 95,65 %
30.07.2021 06:55 14,6 C 13,9 C 93 % 1012,8 hPa 0,0 l/m 1,6 km/h (1 Bft) SW 225 0,000 mm 0,0 UV-I 32 W/m 13,5 C 14,6 C 1,6 km/h (1 Bft) 91,30 %
30.07.2021 06:54 14,6 C 13,9 C 94 % 1012,9 hPa 0,0 l/m 1,6 km/h (1 Bft) SW 225 0,000 mm 0,0 UV-I 32 W/m 13,6 C 14,6 C 1,6 km/h (1 Bft) 95,65 %
30.07.2021 06:53 14,4 C 13,9 C 94 % 1012,8 hPa 0,0 l/m 1,6 km/h (1 Bft) SW 225 0,000 mm 0,0 UV-I 32 W/m 13,4 C 14,4 C 3,2 km/h (1 Bft) 91,30 %
30.07.2021 06:52 14,4 C 13,9 C 93 % 1012,8 hPa 0,0 l/m 1,6 km/h (1 Bft) SW 225 0,000 mm 0,0 UV-I 30 W/m 13,3 C 14,4 C 3,2 km/h (1 Bft) 95,65 %
30.07.2021 06:51 14,3 C 13,3 C 93 % 1012,8 hPa 0,0 l/m 3,2 km/h (1 Bft) SW 225 0,000 mm 0,0 UV-I 30 W/m 13,2 C 14,3 C 4,8 km/h (1 Bft) 91,30 %
30.07.2021 06:50 14,3 C 13,3 C 94 % 1012,9 hPa 0,0 l/m 3,2 km/h (1 Bft) SW 225 0,000 mm 0,0 UV-I 32 W/m 13,3 C 14,3 C 4,8 km/h (1 Bft) 95,65 %
30.07.2021 06:49 14,2 C 13,3 C 94 % 1012,9 hPa 0,0 l/m 3,2 km/h (1 Bft) SW 225 0,000 mm 0,0 UV-I 32 W/m 13,2 C 14,2 C 3,2 km/h (1 Bft) 86,96 %
30.07.2021 06:48 14,2 C 13,3 C 94 % 1012,9 hPa 0,0 l/m 3,2 km/h (1 Bft) SW 225 0,000 mm 0,0 UV-I 35 W/m 13,2 C 14,2 C 3,2 km/h (1 Bft) 86,96 %
30.07.2021 06:47 14,2 C 13,3 C 94 % 1012,9 hPa 0,0 l/m 1,6 km/h (1 Bft) SW 225 0,000 mm 0,0 UV-I 30 W/m 13,2 C 14,2 C 3,2 km/h (1 Bft) 86,96 %
30.07.2021 06:46 14,1 C 13,3 C 94 % 1012,9 hPa 0,0 l/m 1,6 km/h (1 Bft) SW 225 0,000 mm 0,0 UV-I 30 W/m 13,1 C 14,1 C 3,2 km/h (1 Bft) 95,65 %
30.07.2021 06:45 14,1 C 13,3 C 93 % 1012,9 hPa 0,0 l/m 1,6 km/h (1 Bft) SW 225 0,000 mm 0,0 UV-I 28 W/m 13,0 C 14,1 C 3,2 km/h (1 Bft) 86,96 %
30.07.2021 06:44 14,1 C 13,3 C 94 % 1012,8 hPa 0,0 l/m 3,2 km/h (1 Bft) SW 225 0,000 mm 0,0 UV-I 28 W/m 13,1 C 14,1 C 4,8 km/h (1 Bft) 95,65 %
30.07.2021 06:43 14,0 C 13,3 C 94 % 1012,8 hPa 0,0 l/m 3,2 km/h (1 Bft) SW 225 0,000 mm 0,0 UV-I 28 W/m 13,0 C 14,0 C 4,8 km/h (1 Bft) 91,30 %
30.07.2021 06:42 14,0 C 13,3 C 94 % 1012,9 hPa 0,0 l/m 1,6 km/h (1 Bft) SW 225 0,000 mm 0,0 UV-I 30 W/m 13,0 C 14,0 C 3,2 km/h (1 Bft) 91,30 %
30.07.2021 06:41 13,9 C 13,3 C 94 % 1012,9 hPa 0,0 l/m 1,6 km/h (1 Bft) SW 225 0,000 mm 0,0 UV-I 30 W/m 12,9 C 13,9 C 3,2 km/h (1 Bft) 95,65 %
30.07.2021 06:40 13,8 C 13,3 C 94 % 1012,9 hPa 0,0 l/m 1,6 km/h (1 Bft) SW 225 0,000 mm 0,0 UV-I 30 W/m 12,9 C 13,8 C 1,6 km/h (1 Bft) 91,30 %
30.07.2021 06:39 13,8 C 13,3 C 94 % 1012,9 hPa 0,0 l/m 1,6 km/h (1 Bft) SW 225 0,000 mm 0,0 UV-I 30 W/m 12,9 C 13,8 C 1,6 km/h (1 Bft) 91,30 %
30.07.2021 06:38 13,7 C 13,3 C 94 % 1012,9 hPa 0,0 l/m 0,0 km/h (0 Bft) SW 225 0,000 mm 0,0 UV-I 30 W/m 12,8 C 13,7 C 1,6 km/h (1 Bft) 95,65 %
30.07.2021 06:37 13,7 C 13,3 C 94 % 1013,0 hPa 0,0 l/m 1,6 km/h (1 Bft) SW 225 0,000 mm 0,0 UV-I 28 W/m 12,8 C 13,7 C 1,6 km/h (1 Bft) 91,30 %
30.07.2021 06:36 13,6 C 13,3 C 94 % 1012,9 hPa 0,0 l/m 0,0 km/h (0 Bft) SW 225 0,000 mm 0,0 UV-I 28 W/m 12,7 C 13,6 C 1,6 km/h (1 Bft) 95,65 %
30.07.2021 06:35 13,5 C 13,3 C 94 % 1012,9 hPa 0,0 l/m 0,0 km/h (0 Bft) SW 225 0,000 mm 0,0 UV-I 28 W/m 12,6 C 13,5 C 1,6 km/h (1 Bft) 95,65 %
30.07.2021 06:34 13,4 C 13,3 C 94 % 1012,9 hPa 0,0 l/m 0,0 km/h (0 Bft) SW 225 0,000 mm 0,0 UV-I 28 W/m 12,5 C 13,4 C 1,6 km/h (1 Bft) 91,30 %
30.07.2021 06:33 13,4 C 13,3 C 94 % 1012,9 hPa 0,0 l/m 1,6 km/h (1 Bft) SW 225 0,000 mm 0,0 UV-I 28 W/m 12,5 C 13,4 C 1,6 km/h (1 Bft) 95,65 %
30.07.2021 06:32 13,3 C 13,3 C 94 % 1012,9 hPa 0,0 l/m 1,6 km/h (1 Bft) SW 225 0,000 mm 0,0 UV-I 28 W/m 12,4 C 13,3 C 1,6 km/h (1 Bft) 91,30 %
30.07.2021 06:31 13,3 C 13,3 C 94 % 1012,9 hPa 0,0 l/m 1,6 km/h (1 Bft) SW 225 0,000 mm 0,0 UV-I 28 W/m 12,4 C 13,3 C 3,2 km/h (1 Bft) 95,65 %
30.07.2021 06:30 13,2 C 13,3 C 94 % 1012,9 hPa 0,0 l/m 3,2 km/h (1 Bft) SW 225 0,000 mm 0,0 UV-I 26 W/m 12,3 C 13,2 C 3,2 km/h (1 Bft) 82,61 %
30.07.2021 06:29 13,2 C 13,3 C 94 % 1012,9 hPa 0,0 l/m 1,6 km/h (1 Bft) SW 225 0,000 mm 0,0 UV-I 26 W/m 12,3 C 13,2 C 3,2 km/h (1 Bft) 100,00 %
30.07.2021 06:28 13,1 C 13,3 C 94 % 1012,9 hPa 0,0 l/m 3,2 km/h (1 Bft) SW 225 0,000 mm 0,0 UV-I 26 W/m 12,2 C 13,1 C 3,2 km/h (1 Bft) 91,30 %
30.07.2021 06:27 13,1 C 13,3 C 94 % 1012,9 hPa 0,0 l/m 3,2 km/h (1 Bft) SW 225 0,000 mm 0,0 UV-I 26 W/m 12,2 C 13,1 C 4,8 km/h (1 Bft) 95,65 %
30.07.2021 06:26 13,0 C 13,3 C 94 % 1012,9 hPa 0,0 l/m 3,2 km/h (1 Bft) SW 225 0,000 mm 0,0 UV-I 25 W/m 12,1 C 13,0 C 4,8 km/h (1 Bft) 82,61 %
30.07.2021 06:25 13,0 C 12,8 C 94 % 1012,8 hPa 0,0 l/m 3,2 km/h (1 Bft) SW 225 0,000 mm 0,0 UV-I 25 W/m 12,1 C 13,0 C 4,8 km/h (1 Bft) 95,65 %
30.07.2021 06:24 13,0 C 12,8 C 94 % 1012,9 hPa 0,0 l/m 3,2 km/h (1 Bft) SW 225 0,000 mm 0,0 UV-I 25 W/m 12,1 C 13,0 C 4,8 km/h (1 Bft) 91,30 %
30.07.2021 06:23 12,9 C 12,8 C 94 % 1012,9 hPa 0,0 l/m 3,2 km/h (1 Bft) SW 225 0,000 mm 0,0 UV-I 25 W/m 12,0 C 12,9 C 4,8 km/h (1 Bft) 95,65 %
30.07.2021 06:22 12,9 C 12,8 C 94 % 1012,8 hPa 0,0 l/m 3,2 km/h (1 Bft) SW 225 0,000 mm 0,0 UV-I 25 W/m 12,0 C 12,9 C 3,2 km/h (1 Bft) 95,65 %
30.07.2021 06:21 12,9 C 12,8 C 94 % 1012,8 hPa 0,0 l/m 3,2 km/h (1 Bft) SW 225 0,000 mm 0,0 UV-I 25 W/m 12,0 C 12,9 C 4,8 km/h (1 Bft) 95,65 %
30.07.2021 06:20 12,8 C 12,8 C 94 % 1012,9 hPa 0,0 l/m 3,2 km/h (1 Bft) SW 225 0,000 mm 0,0 UV-I 25 W/m 11,9 C 12,8 C 4,8 km/h (1 Bft) 100,00 %
30.07.2021 06:19 12,8 C 12,8 C 94 % 1012,8 hPa 0,0 l/m 3,2 km/h (1 Bft) SW 225 0,000 mm 0,0 UV-I 23 W/m 11,9 C 12,8 C 4,8 km/h (1 Bft) 91,30 %
30.07.2021 06:18 12,8 C 12,8 C 94 % 1012,8 hPa 0,0 l/m 3,2 km/h (1 Bft) SW 225 0,000 mm 0,0 UV-I 23 W/m 11,9 C 12,8 C 4,8 km/h (1 Bft) 95,65 %
30.07.2021 06:17 12,7 C 12,8 C 94 % 1012,9 hPa 0,0 l/m 3,2 km/h (1 Bft) SW 225 0,000 mm 0,0 UV-I 23 W/m 11,8 C 12,7 C 4,8 km/h (1 Bft) 100,00 %
30.07.2021 06:16 12,7 C 12,8 C 94 % 1012,8 hPa 0,0 l/m 3,2 km/h (1 Bft) SW 225 0,000 mm 0,0 UV-I 23 W/m 11,8 C 12,7 C 4,8 km/h (1 Bft) 95,65 %
30.07.2021 06:15 12,7 C 12,8 C 94 % 1012,8 hPa 0,0 l/m 4,8 km/h (1 Bft) SW 225 0,000 mm 0,0 UV-I 23 W/m 11,8 C 12,7 C 4,8 km/h (1 Bft) 95,65 %
30.07.2021 06:14 12,7 C 12,8 C 94 % 1012,8 hPa 0,0 l/m 3,2 km/h (1 Bft) SW 225 0,000 mm 0,0 UV-I 21 W/m 11,8 C 12,7 C 4,8 km/h (1 Bft) 100,00 %
30.07.2021 06:13 12,7 C 12,8 C 94 % 1012,8 hPa 0,0 l/m 3,2 km/h (1 Bft) SW 225 0,000 mm 0,0 UV-I 21 W/m 11,8 C 12,7 C 4,8 km/h (1 Bft) 91,30 %
30.07.2021 06:12 12,6 C 12,8 C 94 % 1012,9 hPa 0,0 l/m 3,2 km/h (1 Bft) SW 225 0,000 mm 0,0 UV-I 19 W/m 11,7 C 12,6 C 4,8 km/h (1 Bft) 95,65 %
30.07.2021 06:11 12,6 C 12,8 C 94 % 1012,9 hPa 0,0 l/m 3,2 km/h (1 Bft) SW 225 0,000 mm 0,0 UV-I 19 W/m 11,7 C 12,6 C 3,2 km/h (1 Bft) 100,00 %
30.07.2021 06:10 12,5 C 12,8 C 94 % 1012,7 hPa 0,0 l/m 3,2 km/h (1 Bft) SW 225 0,000 mm 0,0 UV-I 19 W/m 11,6 C 12,5 C 4,8 km/h (1 Bft) 95,65 %
30.07.2021 06:09 12,4 C 12,8 C 94 % 1012,8 hPa 0,0 l/m 4,8 km/h (1 Bft) SW 225 0,000 mm 0,0 UV-I 19 W/m 11,5 C 12,4 C 4,8 km/h (1 Bft) 95,65 %
30.07.2021 06:08 12,4 C 12,8 C 94 % 1012,8 hPa 0,0 l/m 3,2 km/h (1 Bft) SW 225 0,000 mm 0,0 UV-I 19 W/m 11,5 C 12,4 C 4,8 km/h (1 Bft) 100,00 %
30.07.2021 06:07 12,3 C 12,8 C 94 % 1012,7 hPa 0,0 l/m 3,2 km/h (1 Bft) SW 225 0,000 mm 0,0 UV-I 19 W/m 11,4 C 12,3 C 4,8 km/h (1 Bft) 95,65 %
30.07.2021 06:06 12,2 C 12,8 C 94 % 1012,8 hPa 0,0 l/m 3,2 km/h (1 Bft) SW 225 0,000 mm 0,0 UV-I 18 W/m 11,3 C 12,2 C 3,2 km/h (1 Bft) 95,65 %
30.07.2021 06:05 12,2 C 12,8 C 94 % 1012,7 hPa 0,0 l/m 3,2 km/h (1 Bft) SW 225 0,000 mm 0,0 UV-I 18 W/m 11,3 C 12,2 C 4,8 km/h (1 Bft) 95,65 %
30.07.2021 06:04 12,2 C 12,8 C 94 % 1012,7 hPa 0,0 l/m 3,2 km/h (1 Bft) SW 225 0,000 mm 0,0 UV-I 18 W/m 11,3 C 12,2 C 4,8 km/h (1 Bft) 95,65 %
30.07.2021 06:03 12,1 C 12,8 C 94 % 1012,7 hPa 0,0 l/m 3,2 km/h (1 Bft) SW 225 0,000 mm 0,0 UV-I 18 W/m 11,2 C 12,1 C 4,8 km/h (1 Bft) 91,30 %
30.07.2021 06:02 12,1 C 12,8 C 94 % 1012,7 hPa 0,0 l/m 4,8 km/h (1 Bft) SW 225 0,000 mm 0,0 UV-I 18 W/m 11,2 C 12,1 C 4,8 km/h (1 Bft) 95,65 %
30.07.2021 06:01 12,1 C 12,8 C 94 % 1012,7 hPa 0,0 l/m 3,2 km/h (1 Bft) SW 225 0,000 mm 0,0 UV-I 16 W/m 11,2 C 12,1 C 3,2 km/h (1 Bft) 100,00 %
30.07.2021 06:00 12,1 C 12,8 C 94 % 1012,7 hPa 0,0 l/m 3,2 km/h (1 Bft) SW 225 0,000 mm 0,0 UV-I 16 W/m 11,2 C 12,1 C 4,8 km/h (1 Bft) 95,65 %
30.07.2021 05:59 12,1 C 12,8 C 94 % 1012,7 hPa 0,0 l/m 3,2 km/h (1 Bft) SW 225 0,000 mm 0,0 UV-I 16 W/m 11,2 C 12,1 C 4,8 km/h (1 Bft) 95,65 %
30.07.2021 05:58 12,1 C 12,8 C 94 % 1012,7 hPa 0,0 l/m 3,2 km/h (1 Bft) SW 225 0,000 mm 0,0 UV-I 16 W/m 11,2 C 12,1 C 4,8 km/h (1 Bft) 100,00 %
30.07.2021 05:57 12,0 C 12,8 C 94 % 1012,7 hPa 0,0 l/m 3,2 km/h (1 Bft) SW 225 0,000 mm 0,0 UV-I 14 W/m 11,1 C 12,0 C 4,8 km/h (1 Bft) 95,65 %
30.07.2021 05:56 12,0 C 12,8 C 94 % 1012,7 hPa 0,0 l/m 3,2 km/h (1 Bft) SW 225 0,000 mm 0,0 UV-I 14 W/m 11,1 C 12,0 C 4,8 km/h (1 Bft) 95,65 %
30.07.2021 05:55 12,0 C 12,8 C 94 % 1012,6 hPa 0,0 l/m 3,2 km/h (1 Bft) SW 225 0,000 mm 0,0 UV-I 14 W/m 11,1 C 12,0 C 4,8 km/h (1 Bft) 100,00 %
30.07.2021 05:54 11,9 C 12,2 C 94 % 1012,6 hPa 0,2 l/m 3,2 km/h (1 Bft) SW 225 0,000 mm 0,0 UV-I 14 W/m 11,0 C 11,9 C 4,8 km/h (1 Bft) 95,65 %
30.07.2021 05:53 11,9 C 12,2 C 94 % 1012,7 hPa 0,0 l/m 3,2 km/h (1 Bft) SW 225 0,000 mm 0,0 UV-I 14 W/m 11,0 C 11,9 C 4,8 km/h (1 Bft) 91,30 %
30.07.2021 05:52 11,9 C 12,2 C 94 % 1012,6 hPa 0,0 l/m 3,2 km/h (1 Bft) SW 225 0,000 mm 0,0 UV-I 12 W/m 11,0 C 11,9 C 3,2 km/h (1 Bft) 100,00 %
30.07.2021 05:51 12,0 C 12,2 C 93 % 1012,6 hPa 0,0 l/m 3,2 km/h (1 Bft) SW 225 0,000 mm 0,0 UV-I 12 W/m 10,9 C 12,0 C 3,2 km/h (1 Bft) 95,65 %
30.07.2021 05:50 11,9 C 12,2 C 93 % 1012,7 hPa 0,0 l/m 3,2 km/h (1 Bft) SW 225 0,000 mm 0,0 UV-I 12 W/m 10,8 C 11,9 C 3,2 km/h (1 Bft) 95,65 %
30.07.2021 05:49 12,0 C 12,2 C 93 % 1012,6 hPa 0,0 l/m 3,2 km/h (1 Bft) SW 225 0,000 mm 0,0 UV-I 12 W/m 10,9 C 12,0 C 4,8 km/h (1 Bft) 100,00 %
30.07.2021 05:48 12,1 C 12,2 C 93 % 1012,7 hPa 0,0 l/m 3,2 km/h (1 Bft) SW 225 0,000 mm 0,0 UV-I 12 W/m 11,0 C 12,1 C 4,8 km/h (1 Bft) 91,30 %
30.07.2021 05:47 12,1 C 12,2 C 93 % 1012,7 hPa 0,0 l/m 4,8 km/h (1 Bft) SW 225 0,000 mm 0,0 UV-I 11 W/m 11,0 C 12,1 C 4,8 km/h (1 Bft) 95,65 %
30.07.2021 05:46 12,1 C 12,2 C 93 % 1012,7 hPa 0,0 l/m 3,2 km/h (1 Bft) SW 225 0,000 mm 0,0 UV-I 11 W/m 11,0 C 12,1 C 4,8 km/h (1 Bft) 100,00 %
30.07.2021 05:45 12,1 C 12,2 C 93 % 1012,7 hPa 0,0 l/m 3,2 km/h (1 Bft) SW 225 0,000 mm 0,0 UV-I 11 W/m 11,0 C 12,1 C 4,8 km/h (1 Bft) 95,65 %
30.07.2021 05:44 12,1 C 12,2 C 93 % 1012,7 hPa 0,0 l/m 3,2 km/h (1 Bft) SW 225 0,000 mm 0,0 UV-I 11 W/m 11,0 C 12,1 C 3,2 km/h (1 Bft) 95,65 %
30.07.2021 05:43 12,1 C 12,2 C 94 % 1012,7 hPa 0,0 l/m 3,2 km/h (1 Bft) SW 225 0,000 mm 0,0 UV-I 9 W/m 11,2 C 12,1 C 4,8 km/h (1 Bft) 100,00 %
30.07.2021 05:42 12,1 C 12,2 C 94 % 1012,7 hPa 0,0 l/m 3,2 km/h (1 Bft) SW 225 0,000 mm 0,0 UV-I 9 W/m 11,2 C 12,1 C 4,8 km/h (1 Bft) 95,65 %
30.07.2021 05:41 12,1 C 12,2 C 93 % 1012,6 hPa 0,0 l/m 3,2 km/h (1 Bft) SW 225 0,000 mm 0,0 UV-I 9 W/m 11,0 C 12,1 C 3,2 km/h (1 Bft) 95,65 %
30.07.2021 05:40 12,2 C 12,2 C 94 % 1012,7 hPa 0,0 l/m 3,2 km/h (1 Bft) SW 225 0,000 mm 0,0 UV-I 9 W/m 11,3 C 12,2 C 3,2 km/h (1 Bft) 100,00 %
30.07.2021 05:39 12,1 C 12,2 C 94 % 1012,7 hPa 0,0 l/m 3,2 km/h (1 Bft) SW 225 0,000 mm 0,0 UV-I 9 W/m 11,2 C 12,1 C 3,2 km/h (1 Bft) 95,65 %
30.07.2021 05:38 12,2 C 12,2 C 94 % 1012,7 hPa 0,0 l/m 3,2 km/h (1 Bft) SW 225 0,000 mm 0,0 UV-I 7 W/m 11,3 C 12,2 C 3,2 km/h (1 Bft) 95,65 %
30.07.2021 05:37 12,2 C 12,2 C 94 % 1012,7 hPa 0,0 l/m 3,2 km/h (1 Bft) SW 225 0,000 mm 0,0 UV-I 7 W/m 11,3 C 12,2 C 3,2 km/h (1 Bft) 100,00 %
30.07.2021 05:36 12,2 C 12,2 C 94 % 1012,7 hPa 0,0 l/m 3,2 km/h (1 Bft) SW 225 0,000 mm 0,0 UV-I 7 W/m 11,3 C 12,2 C 4,8 km/h (1 Bft) 95,65 %
30.07.2021 05:35 12,2 C 12,2 C 94 % 1012,7 hPa 0,0 l/m 3,2 km/h (1 Bft) SW 225 0,000 mm 0,0 UV-I 7 W/m 11,3 C 12,2 C 4,8 km/h (1 Bft) 95,65 %
30.07.2021 05:34 12,2 C 12,2 C 94 % 1012,7 hPa 0,0 l/m 3,2 km/h (1 Bft) SW 225 0,000 mm 0,0 UV-I 5 W/m 11,3 C 12,2 C 4,8 km/h (1 Bft) 95,65 %
30.07.2021 05:33 12,1 C 12,2 C 94 % 1012,7 hPa 0,0 l/m 3,2 km/h (1 Bft) SW 225 0,000 mm 0,0 UV-I 5 W/m 11,2 C 12,1 C 4,8 km/h (1 Bft) 95,65 %
30.07.2021 05:32 12,1 C 12,2 C 94 % 1012,7 hPa 0,0 l/m 3,2 km/h (1 Bft) SW 225 0,000 mm 0,0 UV-I 5 W/m 11,2 C 12,1 C 4,8 km/h (1 Bft) 91,30 %
30.07.2021 05:31 12,1 C 12,2 C 94 % 1012,7 hPa 0,0 l/m 3,2 km/h (1 Bft) SW 225 0,000 mm 0,0 UV-I 5 W/m 11,2 C 12,1 C 4,8 km/h (1 Bft) 100,00 %
30.07.2021 05:30 12,1 C 12,2 C 94 % 1012,7 hPa 0,0 l/m 3,2 km/h (1 Bft) SW 225 0,000 mm 0,0 UV-I 5 W/m 11,2 C 12,1 C 3,2 km/h (1 Bft) 86,96 %
30.07.2021 05:29 12,1 C 12,2 C 94 % 1012,7 hPa 0,0 l/m 1,6 km/h (1 Bft) SW 225 0,000 mm 0,0 UV-I 0 W/m 11,2 C 12,1 C 3,2 km/h (1 Bft) 95,65 %
30.07.2021 05:28 11,9 C 12,2 C 94 % 1012,7 hPa 0,0 l/m 1,6 km/h (1 Bft) SW 225 0,000 mm 0,0 UV-I 0 W/m 11,0 C 11,9 C 3,2 km/h (1 Bft) 95,65 %
30.07.2021 05:27 11,9 C 12,2 C 94 % 1012,7 hPa 0,0 l/m 1,6 km/h (1 Bft) SW 225 0,000 mm 0,0 UV-I 0 W/m 11,0 C 11,9 C 3,2 km/h (1 Bft) 95,65 %
30.07.2021 05:26 11,9 C 12,2 C 94 % 1012,7 hPa 0,0 l/m 3,2 km/h (1 Bft) SW 225 0,000 mm 0,0 UV-I 0 W/m 11,0 C 11,9 C 3,2 km/h (1 Bft) 91,30 %
30.07.2021 05:25 11,9 C 12,2 C 94 % 1012,6 hPa 0,0 l/m 3,2 km/h (1 Bft) SW 225 0,000 mm 0,0 UV-I 0 W/m 11,0 C 11,9 C 4,8 km/h (1 Bft) 100,00 %
30.07.2021 05:24 11,9 C 12,2 C 94 % 1012,6 hPa 0,0 l/m 3,2 km/h (1 Bft) SW 225 0,000 mm 0,0 UV-I 0 W/m 11,0 C 11,9 C 4,8 km/h (1 Bft) 91,30 %
30.07.2021 05:23 11,9 C 12,2 C 94 % 1012,7 hPa 0,0 l/m 3,2 km/h (1 Bft) SW 225 0,000 mm 0,0 UV-I 0 W/m 11,0 C 11,9 C 4,8 km/h (1 Bft) 91,30 %
30.07.2021 05:22 11,9 C 12,2 C 93 % 1012,6 hPa 0,0 l/m 3,2 km/h (1 Bft) SW 225 0,000 mm 0,0 UV-I 0 W/m 10,8 C 11,9 C 4,8 km/h (1 Bft) 100,00 %
30.07.2021 05:21 11,9 C 12,2 C 93 % 1012,7 hPa 0,0 l/m 3,2 km/h (1 Bft) SW 225 0,000 mm 0,0 UV-I 0 W/m 10,8 C 11,9 C 4,8 km/h (1 Bft) 91,30 %
30.07.2021 05:20 11,9 C 12,2 C 93 % 1012,5 hPa 0,0 l/m 3,2 km/h (1 Bft) SW 225 0,000 mm 0,0 UV-I 0 W/m 10,8 C 11,9 C 3,2 km/h (1 Bft) 95,65 %
30.07.2021 05:19 12,0 C 12,2 C 93 % 1012,6 hPa 0,0 l/m 3,2 km/h (1 Bft) SW 225 0,000 mm 0,0 UV-I 0 W/m 10,9 C 12,0 C 3,2 km/h (1 Bft) 95,65 %
30.07.2021 05:18 12,0 C 12,2 C 93 % 1012,6 hPa 0,0 l/m 3,2 km/h (1 Bft) SW 225 0,000 mm 0,0 UV-I 0 W/m 10,9 C 12,0 C 3,2 km/h (1 Bft) 95,65 %
30.07.2021 05:17 12,0 C 12,2 C 93 % 1012,6 hPa 0,0 l/m 3,2 km/h (1 Bft) SW 225 0,000 mm 0,0 UV-I 0 W/m 10,9 C 12,0 C 3,2 km/h (1 Bft) 91,30 %
30.07.2021 05:16 12,0 C 12,2 C 93 % 1012,6 hPa 0,0 l/m 1,6 km/h (1 Bft) SW 225 0,000 mm 0,0 UV-I 0 W/m 10,9 C 12,0 C 3,2 km/h (1 Bft) 95,65 %
30.07.2021 05:15 12,1 C 12,2 C 93 % 1012,6 hPa 0,0 l/m 1,6 km/h (1 Bft) SW 225 0,000 mm 0,0 UV-I 0 W/m 11,0 C 12,1 C 3,2 km/h (1 Bft) 91,30 %
30.07.2021 05:14 12,1 C 12,2 C 94 % 1012,7 hPa 0,0 l/m 1,6 km/h (1 Bft) SW 225 0,000 mm 0,0 UV-I 0 W/m 11,2 C 12,1 C 3,2 km/h (1 Bft) 95,65 %
30.07.2021 05:13 12,1 C 12,2 C 94 % 1012,7 hPa 0,0 l/m 1,6 km/h (1 Bft) SW 225 0,000 mm 0,0 UV-I 0 W/m 11,2 C 12,1 C 3,2 km/h (1 Bft) 91,30 %
30.07.2021 05:12 11,9 C 12,2 C 94 % 1012,7 hPa 0,0 l/m 1,6 km/h (1 Bft) SW 225 0,000 mm 0,0 UV-I 0 W/m 11,0 C 11,9 C 3,2 km/h (1 Bft) 100,00 %
30.07.2021 05:11 11,9 C 12,2 C 93 % 1012,7 hPa 0,0 l/m 3,2 km/h (1 Bft) SW 225 0,000 mm 0,0 UV-I 0 W/m 10,8 C 11,9 C 3,2 km/h (1 Bft) 91,30 %
30.07.2021 05:10 11,8 C 12,2 C 93 % 1012,7 hPa 0,0 l/m 3,2 km/h (1 Bft) SW 225 0,000 mm 0,0 UV-I 0 W/m 10,7 C 11,8 C 4,8 km/h (1 Bft) 95,65 %
30.07.2021 05:09 11,8 C 12,2 C 93 % 1012,6 hPa 0,0 l/m 3,2 km/h (1 Bft) SW 225 0,000 mm 0,0 UV-I 0 W/m 10,7 C 11,8 C 4,8 km/h (1 Bft) 95,65 %
30.07.2021 05:08 11,8 C 12,2 C 93 % 1012,7 hPa 0,0 l/m 4,8 km/h (1 Bft) SW 225 0,000 mm 0,0 UV-I 0 W/m 10,7 C 11,8 C 4,8 km/h (1 Bft) 91,30 %
30.07.2021 05:07 11,9 C 12,2 C 93 % 1012,7 hPa 0,0 l/m 4,8 km/h (1 Bft) SW 225 0,000 mm 0,0 UV-I 0 W/m 10,8 C 11,9 C 4,8 km/h (1 Bft) 95,65 %
30.07.2021 05:06 11,9 C 12,2 C 93 % 1012,6 hPa 0,0 l/m 4,8 km/h (1 Bft) SW 225 0,000 mm 0,0 UV-I 0 W/m 10,8 C 11,9 C 4,8 km/h (1 Bft) 100,00 %
30.07.2021 05:05 11,9 C 12,2 C 93 % 1012,7 hPa 0,0 l/m 3,2 km/h (1 Bft) SW 225 0,000 mm 0,0 UV-I 0 W/m 10,8 C 11,9 C 4,8 km/h (1 Bft) 95,65 %
30.07.2021 05:04 11,9 C 12,2 C 93 % 1012,6 hPa 0,0 l/m 3,2 km/h (1 Bft) SW 225 0,000 mm 0,0 UV-I 0 W/m 10,8 C 11,9 C 4,8 km/h (1 Bft) 86,96 %
30.07.2021 05:03 11,9 C 12,2 C 93 % 1012,6 hPa 0,0 l/m 3,2 km/h (1 Bft) SW 225 0,000 mm 0,0 UV-I 0 W/m 10,8 C 11,9 C 4,8 km/h (1 Bft) 95,65 %
30.07.2021 05:02 11,9 C 12,2 C 93 % 1012,5 hPa 0,0 l/m 3,2 km/h (1 Bft) SW 225 0,000 mm 0,0 UV-I 0 W/m 10,8 C 11,9 C 3,2 km/h (1 Bft) 95,65 %
30.07.2021 05:01 12,0 C 12,2 C 93 % 1012,6 hPa 0,0 l/m 3,2 km/h (1 Bft) SW 225 0,000 mm 0,0 UV-I 0 W/m 10,9 C 12,0 C 3,2 km/h (1 Bft) 86,96 %
30.07.2021 05:00 12,1 C 12,2 C 93 % 1012,6 hPa 0,0 l/m 3,2 km/h (1 Bft) SW 225 0,000 mm 0,0 UV-I 0 W/m 11,0 C 12,1 C 4,8 km/h (1 Bft) 100,00 %
30.07.2021 04:59 12,1 C 12,2 C 93 % 1012,6 hPa 0,0 l/m 3,2 km/h (1 Bft) SW 225 0,000 mm 0,0 UV-I 0 W/m 11,0 C 12,1 C 4,8 km/h (1 Bft) 86,96 %
30.07.2021 04:58 12,1 C 12,2 C 93 % 1012,7 hPa 0,0 l/m 3,2 km/h (1 Bft) SW 225 0,000 mm 0,0 UV-I 0 W/m 11,0 C 12,1 C 4,8 km/h (1 Bft) 95,65 %
30.07.2021 04:57 12,1 C 12,2 C 93 % 1012,7 hPa 0,0 l/m 3,2 km/h (1 Bft) SW 225 0,000 mm 0,0 UV-I 0 W/m 11,0 C 12,1 C 4,8 km/h (1 Bft) 91,30 %
30.07.2021 04:56 12,1 C 12,2 C 93 % 1012,7 hPa 0,0 l/m 3,2 km/h (1 Bft) SW 225 0,000 mm 0,0 UV-I 0 W/m 11,0 C 12,1 C 4,8 km/h (1 Bft) 95,65 %
30.07.2021 04:55 12,1 C 12,2 C 93 % 1012,7 hPa 0,0 l/m 3,2 km/h (1 Bft) SW 225 0,000 mm 0,0 UV-I 0 W/m 11,0 C 12,1 C 4,8 km/h (1 Bft) 91,30 %
30.07.2021 04:54 12,1 C 12,2 C 93 % 1012,7 hPa 0,0 l/m 3,2 km/h (1 Bft) SW 225 0,000 mm 0,0 UV-I 0 W/m 11,0 C 12,1 C 4,8 km/h (1 Bft) 91,30 %
30.07.2021 04:53 12,1 C 12,2 C 93 % 1012,6 hPa 0,0 l/m 1,6 km/h (1 Bft) SW 225 0,000 mm 0,0 UV-I 0 W/m 11,0 C 12,1 C 3,2 km/h (1 Bft) 95,65 %
30.07.2021 04:52 12,1 C 12,2 C 93 % 1012,7 hPa 0,0 l/m 1,6 km/h (1 Bft) SW 225 0,000 mm 0,0 UV-I 0 W/m 11,0 C 12,1 C 3,2 km/h (1 Bft) 91,30 %
30.07.2021 04:51 12,1 C 12,2 C 93 % 1012,7 hPa 0,0 l/m 3,2 km/h (1 Bft) SW 225 0,000 mm 0,0 UV-I 0 W/m 11,0 C 12,1 C 3,2 km/h (1 Bft) 100,00 %
30.07.2021 04:50 12,1 C 12,2 C 93 % 1012,7 hPa 0,0 l/m 3,2 km/h (1 Bft) SW 225 0,000 mm 0,0 UV-I 0 W/m 11,0 C 12,1 C 3,2 km/h (1 Bft) 91,30 %
30.07.2021 04:49 12,1 C 12,2 C 93 % 1012,7 hPa 0,0 l/m 3,2 km/h (1 Bft) SW 225 0,000 mm 0,0 UV-I 0 W/m 11,0 C 12,1 C 3,2 km/h (1 Bft) 91,30 %
30.07.2021 04:48 12,1 C 12,2 C 93 % 1012,6 hPa 0,0 l/m 3,2 km/h (1 Bft) SW 225 0,000 mm 0,0 UV-I 0 W/m 11,0 C 12,1 C 3,2 km/h (1 Bft) 95,65 %
30.07.2021 04:47 12,1 C 12,2 C 93 % 1012,7 hPa 0,0 l/m 3,2 km/h (1 Bft) SW 225 0,000 mm 0,0 UV-I 0 W/m 11,0 C 12,1 C 4,8 km/h (1 Bft) 91,30 %
30.07.2021 04:46 12,1 C 12,2 C 93 % 1012,6 hPa 0,0 l/m 3,2 km/h (1 Bft) SW 225 0,000 mm 0,0 UV-I 0 W/m 11,0 C 12,1 C 4,8 km/h (1 Bft) 91,30 %
30.07.2021 04:45 12,1 C 12,2 C 93 % 1012,6 hPa 0,0 l/m 4,8 km/h (1 Bft) SW 225 0,000 mm 0,0 UV-I 0 W/m 11,0 C 12,1 C 4,8 km/h (1 Bft) 100,00 %
30.07.2021 04:44 12,1 C 12,2 C 93 % 1012,6 hPa 0,0 l/m 4,8 km/h (1 Bft) SW 225 0,000 mm 0,0 UV-I 0 W/m 11,0 C 12,1 C 6,4 km/h (2 Bft) 91,30 %
30.07.2021 04:43 12,2 C 12,2 C 93 % 1012,6 hPa 0,0 l/m 4,8 km/h (1 Bft) SW 225 0,000 mm 0,0 UV-I 0 W/m 11,1 C 12,2 C 4,8 km/h (1 Bft) 91,30 %
30.07.2021 04:42 12,2 C 12,2 C 93 % 1012,6 hPa 0,0 l/m 4,8 km/h (1 Bft) SW 225 0,000 mm 0,0 UV-I 0 W/m 11,1 C 12,2 C 4,8 km/h (1 Bft) 100,00 %
30.07.2021 04:41 12,2 C 12,2 C 93 % 1012,6 hPa 0,0 l/m 4,8 km/h (1 Bft) SW 225 0,000 mm 0,0 UV-I 0 W/m 11,1 C 12,2 C 4,8 km/h (1 Bft) 91,30 %
30.07.2021 04:40 12,2 C 12,2 C 93 % 1012,7 hPa 0,0 l/m 3,2 km/h (1 Bft) SW 225 0,000 mm 0,0 UV-I 0 W/m 11,1 C 12,2 C 4,8 km/h (1 Bft) 95,65 %
30.07.2021 04:39 12,2 C 12,2 C 93 % 1012,6 hPa 0,0 l/m 3,2 km/h (1 Bft) SW 225 0,000 mm 0,0 UV-I 0 W/m 11,1 C 12,2 C 3,2 km/h (1 Bft) 91,30 %
30.07.2021 04:38 12,2 C 12,2 C 93 % 1012,6 hPa 0,0 l/m 3,2 km/h (1 Bft) SW 225 0,000 mm 0,0 UV-I 0 W/m 11,1 C 12,2 C 4,8 km/h (1 Bft) 95,65 %
30.07.2021 04:37 12,2 C 12,2 C 93 % 1012,7 hPa 0,0 l/m 3,2 km/h (1 Bft) SW 225 0,000 mm 0,0 UV-I 0 W/m 11,1 C 12,2 C 3,2 km/h (1 Bft) 86,96 %
30.07.2021 04:36 12,2 C 12,2 C 93 % 1012,7 hPa 0,0 l/m 3,2 km/h (1 Bft) SW 225 0,000 mm 0,0 UV-I 0 W/m 11,1 C 12,2 C 3,2 km/h (1 Bft) 91,30 %
30.07.2021 04:35 12,3 C 12,2 C 93 % 1012,7 hPa 0,0 l/m 3,2 km/h (1 Bft) SW 225 0,000 mm 0,0 UV-I 0 W/m 11,2 C 12,3 C 3,2 km/h (1 Bft) 91,30 %
30.07.2021 04:34 12,3 C 12,2 C 93 % 1012,7 hPa 0,0 l/m 3,2 km/h (1 Bft) SW 225 0,000 mm 0,0 UV-I 0 W/m 11,2 C 12,3 C 4,8 km/h (1 Bft) 91,30 %
30.07.2021 04:33 12,3 C 12,8 C 93 % 1012,7 hPa 0,0 l/m 3,2 km/h (1 Bft) SW 225 0,000 mm 0,0 UV-I 0 W/m 11,2 C 12,3 C 3,2 km/h (1 Bft) 95,65 %
30.07.2021 04:32 12,3 C 12,8 C 93 % 1012,7 hPa 0,0 l/m 3,2 km/h (1 Bft) SW 225 0,000 mm 0,0 UV-I 0 W/m 11,2 C 12,3 C 3,2 km/h (1 Bft) 91,30 %
30.07.2021 04:31 12,3 C 12,8 C 93 % 1012,7 hPa 0,0 l/m 1,6 km/h (1 Bft) SW 225 0,000 mm 0,0 UV-I 0 W/m 11,2 C 12,3 C 3,2 km/h (1 Bft) 95,65 %
30.07.2021 04:30 12,3 C 12,8 C 93 % 1012,7 hPa 0,0 l/m 1,6 km/h (1 Bft) SW 225 0,000 mm 0,0 UV-I 0 W/m 11,2 C 12,3 C 3,2 km/h (1 Bft) 95,65 %
30.07.2021 04:29 12,3 C 12,8 C 93 % 1012,7 hPa 0,0 l/m 3,2 km/h (1 Bft) SW 225 0,000 mm 0,0 UV-I 0 W/m 11,2 C 12,3 C 4,8 km/h (1 Bft) 100,00 %
30.07.2021 04:28 12,3 C 12,8 C 93 % 1012,7 hPa 0,0 l/m 3,2 km/h (1 Bft) SW 225 0,000 mm 0,0 UV-I 0 W/m 11,2 C 12,3 C 4,8 km/h (1 Bft) 95,65 %
30.07.2021 04:27 12,2 C 12,8 C 93 % 1012,7 hPa 0,0 l/m 3,2 km/h (1 Bft) SW 225 0,000 mm 0,0 UV-I 0 W/m 11,1 C 12,2 C 4,8 km/h (1 Bft) 95,65 %
30.07.2021 04:26 12,3 C 12,8 C 93 % 1012,7 hPa 0,0 l/m 4,8 km/h (1 Bft) SW 225 0,000 mm 0,0 UV-I 0 W/m 11,2 C 12,3 C 4,8 km/h (1 Bft) 95,65 %
30.07.2021 04:25 12,3 C 12,8 C 92 % 1012,7 hPa 0,0 l/m 3,2 km/h (1 Bft) SW 225 0,000 mm 0,0 UV-I 0 W/m 11,0 C 12,3 C 4,8 km/h (1 Bft) 95,65 %
30.07.2021 04:24 12,3 C 12,2 C 92 % 1012,7 hPa 0,0 l/m 4,8 km/h (1 Bft) SW 225 0,000 mm 0,0 UV-I 0 W/m 11,0 C 12,3 C 4,8 km/h (1 Bft) 95,65 %
30.07.2021 04:23 12,3 C 12,2 C 92 % 1012,8 hPa 0,0 l/m 4,8 km/h (1 Bft) SW 225 0,000 mm 0,0 UV-I 0 W/m 11,0 C 12,3 C 4,8 km/h (1 Bft) 100,00 %
30.07.2021 04:22 12,3 C 12,2 C 93 % 1012,7 hPa 0,0 l/m 4,8 km/h (1 Bft) SW 225 0,000 mm 0,0 UV-I 0 W/m 11,2 C 12,3 C 4,8 km/h (1 Bft) 95,65 %
30.07.2021 04:21 12,4 C 12,2 C 92 % 1012,8 hPa 0,0 l/m 4,8 km/h (1 Bft) SW 225 0,000 mm 0,0 UV-I 0 W/m 11,1 C 12,4 C 4,8 km/h (1 Bft) 95,65 %
30.07.2021 04:20 12,4 C 12,2 C 93 % 1012,8 hPa 0,0 l/m 4,8 km/h (1 Bft) SW 225 0,000 mm 0,0 UV-I 0 W/m 11,3 C 12,4 C 4,8 km/h (1 Bft) 100,00 %
30.07.2021 04:19 12,4 C 12,2 C 93 % 1012,8 hPa 0,0 l/m 4,8 km/h (1 Bft) SW 225 0,000 mm 0,0 UV-I 0 W/m 11,3 C 12,4 C 4,8 km/h (1 Bft) 91,30 %
30.07.2021 04:18 12,4 C 12,2 C 93 % 1012,8 hPa 0,0 l/m 4,8 km/h (1 Bft) SW 225 0,000 mm 0,0 UV-I 0 W/m 11,3 C 12,4 C 4,8 km/h (1 Bft) 95,65 %
30.07.2021 04:17 12,4 C 12,2 C 93 % 1012,8 hPa 0,0 l/m 3,2 km/h (1 Bft) W-SW 247 0,000 mm 0,0 UV-I 0 W/m 11,3 C 12,4 C 4,8 km/h (1 Bft) 100,00 %
30.07.2021 04:16 12,5 C 12,2 C 93 % 1012,8 hPa 0,0 l/m 3,2 km/h (1 Bft) W-SW 247 0,000 mm 0,0 UV-I 0 W/m 11,4 C 12,5 C 4,8 km/h (1 Bft) 95,65 %
30.07.2021 04:15 12,4 C 12,2 C 93 % 1012,8 hPa 0,0 l/m 3,2 km/h (1 Bft) W-SW 247 0,000 mm 0,0 UV-I 0 W/m 11,3 C 12,4 C 4,8 km/h (1 Bft) 95,65 %
30.07.2021 04:14 12,5 C 12,2 C 93 % 1012,7 hPa 0,0 l/m 3,2 km/h (1 Bft) W-SW 247 0,000 mm 0,0 UV-I 0 W/m 11,4 C 12,5 C 4,8 km/h (1 Bft) 100,00 %
30.07.2021 04:13 12,6 C 12,2 C 92 % 1012,8 hPa 0,0 l/m 3,2 km/h (1 Bft) W-SW 247 0,000 mm 0,0 UV-I 0 W/m 11,3 C 12,6 C 4,8 km/h (1 Bft) 95,65 %
30.07.2021 04:12 12,6 C 12,2 C 93 % 1012,8 hPa 0,0 l/m 3,2 km/h (1 Bft) W-SW 247 0,000 mm 0,0 UV-I 0 W/m 11,5 C 12,6 C 4,8 km/h (1 Bft) 95,65 %
30.07.2021 04:11 12,7 C 12,2 C 93 % 1012,8 hPa 0,0 l/m 3,2 km/h (1 Bft) W-SW 247 0,000 mm 0,0 UV-I 0 W/m 11,6 C 12,7 C 4,8 km/h (1 Bft) 100,00 %
30.07.2021 04:10 12,7 C 12,2 C 93 % 1012,8 hPa 0,0 l/m 3,2 km/h (1 Bft) W-SW 247 0,000 mm 0,0 UV-I 0 W/m 11,6 C 12,7 C 4,8 km/h (1 Bft) 95,65 %
30.07.2021 04:09 12,7 C 12,2 C 93 % 1012,8 hPa 0,0 l/m 3,2 km/h (1 Bft) W-SW 247 0,000 mm 0,0 UV-I 0 W/m 11,6 C 12,7 C 3,2 km/h (1 Bft) 95,65 %
30.07.2021 04:08 12,7 C 12,8 C 93 % 1012,8 hPa 0,0 l/m 1,6 km/h (1 Bft) W-SW 247 0,000 mm 0,0 UV-I 0 W/m 11,6 C 12,7 C 3,2 km/h (1 Bft) 100,00 %
30.07.2021 04:07 12,6 C 12,2 C 93 % 1012,8 hPa 0,0 l/m 3,2 km/h (1 Bft) W-SW 247 0,000 mm 0,0 UV-I 0 W/m 11,5 C 12,6 C 3,2 km/h (1 Bft) 95,65 %
30.07.2021 04:06 12,6 C 12,2 C 93 % 1012,8 hPa 0,0 l/m 1,6 km/h (1 Bft) W-SW 247 0,000 mm 0,0 UV-I 0 W/m 11,5 C 12,6 C 3,2 km/h (1 Bft) 91,30 %
30.07.2021 04:05 12,4 C 12,2 C 93 % 1012,8 hPa 0,0 l/m 3,2 km/h (1 Bft) W-SW 247 0,000 mm 0,0 UV-I 0 W/m 11,3 C 12,4 C 3,2 km/h (1 Bft) 95,65 %
30.07.2021 04:04 12,4 C 12,2 C 93 % 1012,7 hPa 0,0 l/m 3,2 km/h (1 Bft) W-SW 247 0,000 mm 0,0 UV-I 0 W/m 11,3 C 12,4 C 3,2 km/h (1 Bft) 91,30 %
30.07.2021 04:03 12,4 C 12,2 C 92 % 1012,8 hPa 0,0 l/m 1,6 km/h (1 Bft) W-SW 247 0,000 mm 0,0 UV-I 0 W/m 11,1 C 12,4 C 3,2 km/h (1 Bft) 95,65 %
30.07.2021 04:02 12,4 C 12,2 C 93 % 1012,8 hPa 0,0 l/m 3,2 km/h (1 Bft) W-SW 247 0,000 mm 0,0 UV-I 0 W/m 11,3 C 12,4 C 3,2 km/h (1 Bft) 100,00 %
30.07.2021 04:01 12,4 C 12,2 C 93 % 1012,8 hPa 0,0 l/m 3,2 km/h (1 Bft) W-SW 247 0,000 mm 0,0 UV-I 0 W/m 11,3 C 12,4 C 3,2 km/h (1 Bft) 95,65 %
30.07.2021 04:00 12,4 C 12,2 C 93 % 1012,8 hPa 0,0 l/m 3,2 km/h (1 Bft) W-SW 247 0,000 mm 0,0 UV-I 0 W/m 11,3 C 12,4 C 4,8 km/h (1 Bft) 91,30 %
30.07.2021 03:59 12,4 C 12,8 C 93 % 1012,7 hPa 0,0 l/m 3,2 km/h (1 Bft) W-SW 247 0,000 mm 0,0 UV-I 0 W/m 11,3 C 12,4 C 4,8 km/h (1 Bft) 100,00 %
30.07.2021 03:58 12,4 C 12,8 C 92 % 1012,7 hPa 0,0 l/m 3,2 km/h (1 Bft) W-SW 247 0,000 mm 0,0 UV-I 0 W/m 11,1 C 12,4 C 4,8 km/h (1 Bft) 86,96 %
30.07.2021 03:57 12,4 C 12,8 C 92 % 1012,7 hPa 0,0 l/m 3,2 km/h (1 Bft) W-SW 247 0,000 mm 0,0 UV-I 0 W/m 11,1 C 12,4 C 4,8 km/h (1 Bft) 95,65 %
30.07.2021 03:56 12,5 C 12,8 C 92 % 1012,7 hPa 0,0 l/m 1,6 km/h (1 Bft) W-SW 247 0,000 mm 0,0 UV-I 0 W/m 11,2 C 12,5 C 4,8 km/h (1 Bft) 95,65 %
30.07.2021 03:55 12,6 C 12,8 C 92 % 1012,6 hPa 0,0 l/m 0,0 km/h (0 Bft) N 0 0,000 mm 0,0 UV-I 0 W/m 11,3 C 12,6 C 0,0 km/h (0 Bft) 91,30 %
30.07.2021 03:54 12,6 C 12,2 C 92 % 1012,7 hPa 0,0 l/m 0,0 km/h (0 Bft) N 0 0,000 mm 0,0 UV-I 0 W/m 11,3 C 12,6 C 0,0 km/h (0 Bft) 91,30 %
30.07.2021 03:53 12,6 C 12,2 C 92 % 1012,7 hPa 0,0 l/m 0,0 km/h (0 Bft) N 0 0,000 mm 0,0 UV-I 0 W/m 11,3 C 12,6 C 0,0 km/h (0 Bft) 95,65 %
30.07.2021 03:52 12,6 C 12,8 C 92 % 1012,7 hPa 0,0 l/m 0,0 km/h (0 Bft) N 0 0,000 mm 0,0 UV-I 0 W/m 11,3 C 12,6 C 0,0 km/h (0 Bft) 91,30 %
30.07.2021 03:51 12,6 C 12,8 C 93 % 1012,7 hPa 0,0 l/m 0,0 km/h (0 Bft) N 0 0,000 mm 0,0 UV-I 0 W/m 11,5 C 12,6 C 0,0 km/h (0 Bft) 95,65 %
30.07.2021 03:50 12,6 C 12,8 C 92 % 1012,7 hPa 0,0 l/m 0,0 km/h (0 Bft) N 0 0,000 mm 0,0 UV-I 0 W/m 11,3 C 12,6 C 0,0 km/h (0 Bft) 95,65 %
30.07.2021 03:49 12,6 C 12,8 C 92 % 1012,7 hPa 0,0 l/m 0,0 km/h (0 Bft) N 0 0,000 mm 0,0 UV-I 0 W/m 11,3 C 12,6 C 0,0 km/h (0 Bft) 95,65 %
30.07.2021 03:48 12,6 C 12,8 C 92 % 1012,8 hPa 0,0 l/m 0,0 km/h (0 Bft) N 0 0,000 mm 0,0 UV-I 0 W/m 11,3 C 12,6 C 0,0 km/h (0 Bft) 91,30 %
30.07.2021 03:47 12,6 C 12,8 C 92 % 1012,8 hPa 0,0 l/m 0,0 km/h (0 Bft) N 0 0,000 mm 0,0 UV-I 0 W/m 11,3 C 12,6 C 0,0 km/h (0 Bft) 95,65 %
30.07.2021 03:46 12,6 C 12,8 C 92 % 1012,7 hPa 0,0 l/m 0,0 km/h (0 Bft) N 0 0,000 mm 0,0 UV-I 0 W/m 11,3 C 12,6 C 0,0 km/h (0 Bft) 95,65 %
30.07.2021 03:45 12,7 C 12,8 C 92 % 1012,8 hPa 0,0 l/m 0,0 km/h (0 Bft) N 0 0,000 mm 0,0 UV-I 0 W/m 11,4 C 12,7 C 0,0 km/h (0 Bft) 86,96 %
30.07.2021 03:44 12,7 C 12,8 C 92 % 1012,7 hPa 0,0 l/m 0,0 km/h (0 Bft) N 0 0,000 mm 0,0 UV-I 0 W/m 11,4 C 12,7 C 0,0 km/h (0 Bft) 100,00 %
30.07.2021 03:43 12,7 C 12,8 C 92 % 1012,8 hPa 0,0 l/m 0,0 km/h (0 Bft) N 0 0,000 mm 0,0 UV-I 0 W/m 11,4 C 12,7 C 0,0 km/h (0 Bft) 91,30 %
30.07.2021 03:42 12,7 C 12,8 C 92 % 1012,7 hPa 0,0 l/m 0,0 km/h (0 Bft) N 0 0,000 mm 0,0 UV-I 0 W/m 11,4 C 12,7 C 0,0 km/h (0 Bft) 95,65 %
30.07.2021 03:41 12,7 C 12,8 C 92 % 1012,7 hPa 0,0 l/m 0,0 km/h (0 Bft) N 0 0,000 mm 0,0 UV-I 0 W/m 11,4 C 12,7 C 0,0 km/h (0 Bft) 95,65 %
30.07.2021 03:40 12,8 C 12,8 C 92 % 1012,8 hPa 0,0 l/m 0,0 km/h (0 Bft) N 0 0,000 mm 0,0 UV-I 0 W/m 11,5 C 12,8 C 0,0 km/h (0 Bft) 95,65 %
30.07.2021 03:39 12,8 C 12,8 C 92 % 1012,7 hPa 0,0 l/m 0,0 km/h (0 Bft) N 0 0,000 mm 0,0 UV-I 0 W/m 11,5 C 12,8 C 0,0 km/h (0 Bft) 86,96 %
30.07.2021 03:38 12,9 C 12,8 C 92 % 1012,8 hPa 0,0 l/m 0,0 km/h (0 Bft) N 0 0,000 mm 0,0 UV-I 0 W/m 11,6 C 12,9 C 0,0 km/h (0 Bft) 95,65 %
30.07.2021 03:37 12,9 C 12,8 C 92 % 1012,8 hPa 0,0 l/m 0,0 km/h (0 Bft) N 0 0,000 mm 0,0 UV-I 0 W/m 11,6 C 12,9 C 0,0 km/h (0 Bft) 95,65 %
30.07.2021 03:36 13,0 C 12,8 C 92 % 1012,8 hPa 0,0 l/m 0,0 km/h (0 Bft) N 0 0,000 mm 0,0 UV-I 0 W/m 11,7 C 13,0 C 0,0 km/h (0 Bft) 95,65 %
30.07.2021 03:35 13,0 C 12,8 C 93 % 1012,8 hPa 0,0 l/m 0,0 km/h (0 Bft) N 0 0,000 mm 0,0 UV-I 0 W/m 11,9 C 13,0 C 0,0 km/h (0 Bft) 91,30 %
30.07.2021 03:34 13,0 C 12,8 C 92 % 1012,8 hPa 0,0 l/m 0,0 km/h (0 Bft) N 0 0,000 mm 0,0 UV-I 0 W/m 11,7 C 13,0 C 0,0 km/h (0 Bft) 95,65 %
30.07.2021 03:33 13,0 C 12,8 C 93 % 1012,8 hPa 0,0 l/m 0,0 km/h (0 Bft) N 0 0,000 mm 0,0 UV-I 0 W/m 11,9 C 13,0 C 0,0 km/h (0 Bft) 86,96 %
30.07.2021 03:32 13,0 C 12,8 C 93 % 1012,9 hPa 0,0 l/m 0,0 km/h (0 Bft) N 0 0,000 mm 0,0 UV-I 0 W/m 11,9 C 13,0 C 0,0 km/h (0 Bft) 91,30 %
30.07.2021 03:31 13,0 C 12,8 C 92 % 1012,8 hPa 0,0 l/m 0,0 km/h (0 Bft) N 0 0,000 mm 0,0 UV-I 0 W/m 11,7 C 13,0 C 0,0 km/h (0 Bft) 95,65 %
30.07.2021 03:30 13,0 C 12,8 C 93 % 1012,9 hPa 0,0 l/m 0,0 km/h (0 Bft) N 0 0,000 mm 0,0 UV-I 0 W/m 11,9 C 13,0 C 0,0 km/h (0 Bft) 95,65 %
30.07.2021 03:29 13,1 C 12,8 C 93 % 1012,9 hPa 0,0 l/m 0,0 km/h (0 Bft) N 0 0,000 mm 0,0 UV-I 0 W/m 12,0 C 13,1 C 0,0 km/h (0 Bft) 91,30 %
30.07.2021 03:28 13,0 C 12,8 C 93 % 1012,9 hPa 0,0 l/m 0,0 km/h (0 Bft) N 0 0,000 mm 0,0 UV-I 0 W/m 11,9 C 13,0 C 0,0 km/h (0 Bft) 100,00 %
30.07.2021 03:27 13,0 C 12,8 C 93 % 1012,9 hPa 0,0 l/m 0,0 km/h (0 Bft) N 0 0,000 mm 0,0 UV-I 0 W/m 11,9 C 13,0 C 0,0 km/h (0 Bft) 95,65 %
30.07.2021 03:26 13,0 C 12,8 C 93 % 1013,0 hPa 0,0 l/m 0,0 km/h (0 Bft) N 0 0,000 mm 0,0 UV-I 0 W/m 11,9 C 13,0 C 0,0 km/h (0 Bft) 95,65 %
30.07.2021 03:25 12,9 C 12,8 C 92 % 1012,9 hPa 0,0 l/m 0,0 km/h (0 Bft) N 0 0,000 mm 0,0 UV-I 0 W/m 11,6 C 12,9 C 0,0 km/h (0 Bft) 100,00 %
30.07.2021 03:24 12,9 C 12,8 C 92 % 1013,0 hPa 0,0 l/m 0,0 km/h (0 Bft) N 0 0,000 mm 0,0 UV-I 0 W/m 11,6 C 12,9 C 0,0 km/h (0 Bft) 91,30 %
30.07.2021 03:23 13,0 C 12,8 C 92 % 1013,0 hPa 0,0 l/m 0,0 km/h (0 Bft) N 0 0,000 mm 0,0 UV-I 0 W/m 11,7 C 13,0 C 0,0 km/h (0 Bft) 95,65 %
30.07.2021 03:22 13,1 C 12,8 C 92 % 1013,0 hPa 0,0 l/m 0,0 km/h (0 Bft) N 0 0,000 mm 0,0 UV-I 0 W/m 11,8 C 13,1 C 0,0 km/h (0 Bft) 95,65 %
30.07.2021 03:21 13,1 C 12,8 C 93 % 1012,9 hPa 0,0 l/m 0,0 km/h (0 Bft) N 0 0,000 mm 0,0 UV-I 0 W/m 12,0 C 13,1 C 0,0 km/h (0 Bft) 91,30 %
30.07.2021 03:20 13,1 C 12,8 C 93 % 1012,9 hPa 0,0 l/m 0,0 km/h (0 Bft) N 0 0,000 mm 0,0 UV-I 0 W/m 12,0 C 13,1 C 0,0 km/h (0 Bft) 95,65 %
30.07.2021 03:19 13,1 C 12,8 C 93 % 1013,0 hPa 0,0 l/m 0,0 km/h (0 Bft) N 0 0,000 mm 0,0 UV-I 0 W/m 12,0 C 13,1 C 0,0 km/h (0 Bft) 100,00 %
30.07.2021 03:18 13,1 C 12,8 C 93 % 1013,0 hPa 0,0 l/m 0,0 km/h (0 Bft) N 0 0,000 mm 0,0 UV-I 0 W/m 12,0 C 13,1 C 0,0 km/h (0 Bft) 95,65 %
30.07.2021 03:17 13,1 C 12,8 C 93 % 1013,0 hPa 0,0 l/m 0,0 km/h (0 Bft) N 0 0,000 mm 0,0 UV-I 0 W/m 12,0 C 13,1 C 0,0 km/h (0 Bft) 95,65 %
30.07.2021 03:16 13,1 C 12,8 C 93 % 1012,9 hPa 0,0 l/m 0,0 km/h (0 Bft) N 0 0,000 mm 0,0 UV-I 0 W/m 12,0 C 13,1 C 0,0 km/h (0 Bft) 100,00 %
30.07.2021 03:15 13,0 C 12,8 C 93 % 1012,9 hPa 0,0 l/m 0,0 km/h (0 Bft) N 0 0,000 mm 0,0 UV-I 0 W/m 11,9 C 13,0 C 0,0 km/h (0 Bft) 91,30 %
30.07.2021 03:14 12,9 C 12,8 C 92 % 1013,0 hPa 0,0 l/m 0,0 km/h (0 Bft) N 0 0,000 mm 0,0 UV-I 0 W/m 11,6 C 12,9 C 0,0 km/h (0 Bft) 95,65 %
30.07.2021 03:13 12,9 C 12,8 C 92 % 1013,0 hPa 0,0 l/m 0,0 km/h (0 Bft) N 0 0,000 mm 0,0 UV-I 0 W/m 11,6 C 12,9 C 0,0 km/h (0 Bft) 100,00 %
30.07.2021 03:12 12,9 C 12,8 C 92 % 1013,0 hPa 0,0 l/m 0,0 km/h (0 Bft) N 0 0,000 mm 0,0 UV-I 0 W/m 11,6 C 12,9 C 0,0 km/h (0 Bft) 95,65 %
30.07.2021 03:11 13,0 C 12,8 C 92 % 1012,9 hPa 0,0 l/m 0,0 km/h (0 Bft) N 0 0,000 mm 0,0 UV-I 0 W/m 11,7 C 13,0 C 0,0 km/h (0 Bft) 95,65 %
30.07.2021 03:10 13,1 C 12,8 C 92 % 1013,0 hPa 0,0 l/m 0,0 km/h (0 Bft) N 0 0,000 mm 0,0 UV-I 0 W/m 11,8 C 13,1 C 0,0 km/h (0 Bft) 100,00 %
30.07.2021 03:09 13,1 C 12,8 C 92 % 1012,9 hPa 0,0 l/m 0,0 km/h (0 Bft) N 0 0,000 mm 0,0 UV-I 0 W/m 11,8 C 13,1 C 0,0 km/h (0 Bft) 95,65 %
30.07.2021 03:08 13,1 C 12,8 C 92 % 1013,0 hPa 0,0 l/m 0,0 km/h (0 Bft) N 0 0,000 mm 0,0 UV-I 0 W/m 11,8 C 13,1 C 0,0 km/h (0 Bft) 91,30 %
30.07.2021 03:07 13,1 C 12,8 C 92 % 1012,9 hPa 0,0 l/m 0,0 km/h (0 Bft) N 0 0,000 mm 0,0 UV-I 0 W/m 11,8 C 13,1 C 0,0 km/h (0 Bft) 95,65 %
30.07.2021 03:06 13,1 C 12,8 C 92 % 1013,0 hPa 0,0 l/m 0,0 km/h (0 Bft) N 0 0,000 mm 0,0 UV-I 0 W/m 11,8 C 13,1 C 0,0 km/h (0 Bft) 86,96 %
30.07.2021 03:05 13,1 C 12,8 C 92 % 1012,9 hPa 0,0 l/m 0,0 km/h (0 Bft) N 0 0,000 mm 0,0 UV-I 0 W/m 11,8 C 13,1 C 0,0 km/h (0 Bft) 95,65 %
30.07.2021 03:04 13,1 C 12,8 C 92 % 1013,0 hPa 0,0 l/m 0,0 km/h (0 Bft) N 0 0,000 mm 0,0 UV-I 0 W/m 11,8 C 13,1 C 0,0 km/h (0 Bft) 86,96 %
30.07.2021 03:03 13,1 C 12,8 C 92 % 1013,0 hPa 0,0 l/m 0,0 km/h (0 Bft) N 0 0,000 mm 0,0 UV-I 0 W/m 11,8 C 13,1 C 0,0 km/h (0 Bft) 95,65 %
30.07.2021 03:02 13,1 C 12,8 C 92 % 1013,1 hPa 0,0 l/m 0,0 km/h (0 Bft) N 0 0,000 mm 0,0 UV-I 0 W/m 11,8 C 13,1 C 0,0 km/h (0 Bft) 91,30 %
30.07.2021 03:01 13,2 C 12,8 C 92 % 1013,0 hPa 0,0 l/m 0,0 km/h (0 Bft) N 0 0,000 mm 0,0 UV-I 0 W/m 11,9 C 13,2 C 0,0 km/h (0 Bft) 95,65 %
30.07.2021 03:00 13,2 C 12,8 C 92 % 1013,0 hPa 0,0 l/m 0,0 km/h (0 Bft) N 0 0,000 mm 0,0 UV-I 0 W/m 11,9 C 13,2 C 0,0 km/h (0 Bft) 91,30 %
30.07.2021 02:59 13,2 C 12,8 C 92 % 1013,0 hPa 0,0 l/m 0,0 km/h (0 Bft) N 0 0,000 mm 0,0 UV-I 0 W/m 11,9 C 13,2 C 0,0 km/h (0 Bft) 91,30 %
30.07.2021 02:58 13,2 C 12,8 C 92 % 1013,0 hPa 0,0 l/m 0,0 km/h (0 Bft) N 0 0,000 mm 0,0 UV-I 0 W/m 11,9 C 13,2 C 0,0 km/h (0 Bft) 100,00 %
30.07.2021 02:57 13,2 C 12,8 C 92 % 1013,1 hPa 0,0 l/m 0,0 km/h (0 Bft) N 0 0,000 mm 0,0 UV-I 0 W/m 11,9 C 13,2 C 0,0 km/h (0 Bft) 91,30 %
30.07.2021 02:56 13,2 C 12,8 C 92 % 1013,0 hPa 0,0 l/m 0,0 km/h (0 Bft) N 0 0,000 mm 0,0 UV-I 0 W/m 11,9 C 13,2 C 0,0 km/h (0 Bft) 95,65 %
30.07.2021 02:55 13,2 C 12,8 C 92 % 1013,0 hPa 0,0 l/m 0,0 km/h (0 Bft) N 0 0,000 mm 0,0 UV-I 0 W/m 11,9 C 13,2 C 0,0 km/h (0 Bft) 91,30 %
30.07.2021 02:54 13,2 C 12,8 C 92 % 1013,1 hPa 0,0 l/m 0,0 km/h (0 Bft) N 0 0,000 mm 0,0 UV-I 0 W/m 11,9 C 13,2 C 0,0 km/h (0 Bft) 95,65 %
30.07.2021 02:53 13,2 C 12,8 C 92 % 1013,1 hPa 0,0 l/m 0,0 km/h (0 Bft) N 0 0,000 mm 0,0 UV-I 0 W/m 11,9 C 13,2 C 0,0 km/h (0 Bft) 86,96 %
30.07.2021 02:52 13,2 C 12,8 C 92 % 1013,0 hPa 0,0 l/m 0,0 km/h (0 Bft) N 0 0,000 mm 0,0 UV-I 0 W/m 11,9 C 13,2 C 0,0 km/h (0 Bft) 95,65 %
30.07.2021 02:51 13,2 C 12,8 C 92 % 1013,0 hPa 0,0 l/m 0,0 km/h (0 Bft) N 0 0,000 mm 0,0 UV-I 0 W/m 11,9 C 13,2 C 0,0 km/h (0 Bft) 91,30 %
30.07.2021 02:50 13,2 C 12,8 C 92 % 1013,0 hPa 0,0 l/m 0,0 km/h (0 Bft) N 0 0,000 mm 0,0 UV-I 0 W/m 11,9 C 13,2 C 0,0 km/h (0 Bft) 86,96 %
30.07.2021 02:49 13,2 C 12,8 C 92 % 1012,9 hPa 0,0 l/m 0,0 km/h (0 Bft) N 0 0,000 mm 0,0 UV-I 0 W/m 11,9 C 13,2 C 0,0 km/h (0 Bft) 95,65 %
30.07.2021 02:48 13,3 C 12,8 C 92 % 1012,9 hPa 0,0 l/m 0,0 km/h (0 Bft) N 0 0,000 mm 0,0 UV-I 0 W/m 12,0 C 13,3 C 0,0 km/h (0 Bft) 95,65 %
30.07.2021 02:47 13,3 C 12,8 C 92 % 1012,9 hPa 0,0 l/m 0,0 km/h (0 Bft) N 0 0,000 mm 0,0 UV-I 0 W/m 12,0 C 13,3 C 0,0 km/h (0 Bft) 95,65 %
30.07.2021 02:46 13,2 C 12,8 C 92 % 1012,9 hPa 0,0 l/m 0,0 km/h (0 Bft) N 0 0,000 mm 0,0 UV-I 0 W/m 11,9 C 13,2 C 0,0 km/h (0 Bft) 91,30 %
30.07.2021 02:45 13,2 C 12,8 C 92 % 1012,9 hPa 0,0 l/m 0,0 km/h (0 Bft) N 0 0,000 mm 0,0 UV-I 0 W/m 11,9 C 13,2 C 0,0 km/h (0 Bft) 100,00 %
30.07.2021 02:44 13,1 C 12,8 C 92 % 1013,0 hPa 0,0 l/m 0,0 km/h (0 Bft) N 0 0,000 mm 0,0 UV-I 0 W/m 11,8 C 13,1 C 0,0 km/h (0 Bft) 91,30 %
30.07.2021 02:43 13,1 C 12,8 C 92 % 1012,9 hPa 0,0 l/m 0,0 km/h (0 Bft) N 0 0,000 mm 0,0 UV-I 0 W/m 11,8 C 13,1 C 0,0 km/h (0 Bft) 91,30 %
30.07.2021 02:42 13,1 C 12,8 C 92 % 1012,9 hPa 0,0 l/m 0,0 km/h (0 Bft) N 0 0,000 mm 0,0 UV-I 0 W/m 11,8 C 13,1 C 0,0 km/h (0 Bft) 95,65 %
30.07.2021 02:41 13,2 C 12,8 C 92 % 1012,9 hPa 0,0 l/m 0,0 km/h (0 Bft) N 0 0,000 mm 0,0 UV-I 0 W/m 11,9 C 13,2 C 0,0 km/h (0 Bft) 95,65 %
30.07.2021 02:40 13,2 C 12,8 C 91 % 1012,9 hPa 0,0 l/m 0,0 km/h (0 Bft) N 0 0,000 mm 0,0 UV-I 0 W/m 11,8 C 13,2 C 0,0 km/h (0 Bft) 86,96 %
30.07.2021 02:39 13,2 C 12,8 C 91 % 1012,9 hPa 0,0 l/m 0,0 km/h (0 Bft) N 0 0,000 mm 0,0 UV-I 0 W/m 11,8 C 13,2 C 0,0 km/h (0 Bft) 95,65 %
30.07.2021 02:38 13,2 C 12,8 C 91 % 1013,0 hPa 0,0 l/m 0,0 km/h (0 Bft) N 0 0,000 mm 0,0 UV-I 0 W/m 11,8 C 13,2 C 0,0 km/h (0 Bft) 91,30 %
30.07.2021 02:37 13,3 C 12,8 C 91 % 1013,0 hPa 0,0 l/m 0,0 km/h (0 Bft) N 0 0,000 mm 0,0 UV-I 0 W/m 11,9 C 13,3 C 0,0 km/h (0 Bft) 91,30 %
30.07.2021 02:36 13,3 C 12,8 C 92 % 1013,0 hPa 0,0 l/m 0,0 km/h (0 Bft) N 0 0,000 mm 0,0 UV-I 0 W/m 12,0 C 13,3 C 0,0 km/h (0 Bft) 100,00 %
30.07.2021 02:35 13,3 C 12,8 C 92 % 1013,0 hPa 0,0 l/m 0,0 km/h (0 Bft) N 0 0,000 mm 0,0 UV-I 0 W/m 12,0 C 13,3 C 0,0 km/h (0 Bft) 91,30 %
30.07.2021 02:34 13,3 C 12,8 C 92 % 1013,0 hPa 0,0 l/m 0,0 km/h (0 Bft) N 0 0,000 mm 0,0 UV-I 0 W/m 12,0 C 13,3 C 0,0 km/h (0 Bft) 95,65 %
30.07.2021 02:33 13,3 C 12,8 C 91 % 1013,0 hPa 0,0 l/m 0,0 km/h (0 Bft) N 0 0,000 mm 0,0 UV-I 0 W/m 11,9 C 13,3 C 0,0 km/h (0 Bft) 100,00 %
30.07.2021 02:32 13,3 C 12,8 C 91 % 1013,0 hPa 0,0 l/m 0,0 km/h (0 Bft) N 0 0,000 mm 0,0 UV-I 0 W/m 11,9 C 13,3 C 0,0 km/h (0 Bft) 95,65 %
30.07.2021 02:31 13,3 C 12,8 C 91 % 1012,9 hPa 0,0 l/m 0,0 km/h (0 Bft) N 0 0,000 mm 0,0 UV-I 0 W/m 11,9 C 13,3 C 0,0 km/h (0 Bft) 86,96 %
30.07.2021 02:30 13,4 C 12,8 C 92 % 1013,0 hPa 0,0 l/m 0,0 km/h (0 Bft) N 0 0,000 mm 0,0 UV-I 0 W/m 12,1 C 13,4 C 0,0 km/h (0 Bft) 100,00 %
30.07.2021 02:29 13,3 C 12,8 C 92 % 1013,0 hPa 0,0 l/m 0,0 km/h (0 Bft) N 0 0,000 mm 0,0 UV-I 0 W/m 12,0 C 13,3 C 0,0 km/h (0 Bft) 95,65 %
30.07.2021 02:28 13,3 C 12,8 C 91 % 1013,0 hPa 0,0 l/m 0,0 km/h (0 Bft) N 0 0,000 mm 0,0 UV-I 0 W/m 11,9 C 13,3 C 0,0 km/h (0 Bft) 95,65 %
30.07.2021 02:27 13,3 C 12,8 C 92 % 1013,0 hPa 0,0 l/m 0,0 km/h (0 Bft) N 0 0,000 mm 0,0 UV-I 0 W/m 12,0 C 13,3 C 0,0 km/h (0 Bft) 100,00 %
30.07.2021 02:26 13,4 C 12,8 C 92 % 1013,0 hPa 0,0 l/m 0,0 km/h (0 Bft) N 0 0,000 mm 0,0 UV-I 0 W/m 12,1 C 13,4 C 0,0 km/h (0 Bft) 91,30 %
30.07.2021 02:25 13,4 C 12,8 C 92 % 1012,9 hPa 0,0 l/m 0,0 km/h (0 Bft) N 0 0,000 mm 0,0 UV-I 0 W/m 12,1 C 13,4 C 0,0 km/h (0 Bft) 95,65 %
30.07.2021 02:24 13,4 C 13,3 C 92 % 1013,0 hPa 0,0 l/m 0,0 km/h (0 Bft) N 0 0,000 mm 0,0 UV-I 0 W/m 12,1 C 13,4 C 0,0 km/h (0 Bft) 95,65 %
30.07.2021 02:23 13,4 C 12,8 C 92 % 1013,0 hPa 0,0 l/m 0,0 km/h (0 Bft) N 0 0,000 mm 0,0 UV-I 0 W/m 12,1 C 13,4 C 0,0 km/h (0 Bft) 91,30 %
30.07.2021 02:22 13,5 C 12,8 C 92 % 1013,0 hPa 0,0 l/m 0,0 km/h (0 Bft) N 0 0,000 mm 0,0 UV-I 0 W/m 12,2 C 13,5 C 0,0 km/h (0 Bft) 91,30 %
30.07.2021 02:21 13,5 C 12,8 C 92 % 1013,0 hPa 0,0 l/m 0,0 km/h (0 Bft) N 0 0,000 mm 0,0 UV-I 0 W/m 12,2 C 13,5 C 0,0 km/h (0 Bft) 100,00 %
30.07.2021 02:20 13,6 C 13,3 C 92 % 1012,9 hPa 0,0 l/m 0,0 km/h (0 Bft) N 0 0,000 mm 0,0 UV-I 0 W/m 12,3 C 13,6 C 0,0 km/h (0 Bft) 91,30 %
30.07.2021 02:19 13,5 C 12,8 C 92 % 1013,0 hPa 0,0 l/m 0,0 km/h (0 Bft) N 0 0,000 mm 0,0 UV-I 0 W/m 12,2 C 13,5 C 0,0 km/h (0 Bft) 95,65 %
30.07.2021 02:18 13,5 C 12,8 C 92 % 1013,0 hPa 0,0 l/m 0,0 km/h (0 Bft) N 0 0,000 mm 0,0 UV-I 0 W/m 12,2 C 13,5 C 0,0 km/h (0 Bft) 95,65 %
30.07.2021 02:17 13,5 C 12,8 C 92 % 1013,1 hPa 0,0 l/m 0,0 km/h (0 Bft) N 0 0,000 mm 0,0 UV-I 0 W/m 12,2 C 13,5 C 0,0 km/h (0 Bft) 91,30 %
30.07.2021 02:16 13,6 C 12,8 C 92 % 1013,0 hPa 0,0 l/m 0,0 km/h (0 Bft) N 0 0,000 mm 0,0 UV-I 0 W/m 12,3 C 13,6 C 0,0 km/h (0 Bft) 91,30 %
30.07.2021 02:15 13,6 C 12,8 C 92 % 1013,0 hPa 0,0 l/m 0,0 km/h (0 Bft) N 0 0,000 mm 0,0 UV-I 0 W/m 12,3 C 13,6 C 0,0 km/h (0 Bft) 100,00 %
30.07.2021 02:14 13,6 C 12,8 C 92 % 1013,1 hPa 0,0 l/m 0,0 km/h (0 Bft) N 0 0,000 mm 0,0 UV-I 0 W/m 12,3 C 13,6 C 0,0 km/h (0 Bft) 91,30 %
30.07.2021 02:13 13,6 C 12,8 C 92 % 1013,1 hPa 0,0 l/m 0,0 km/h (0 Bft) N 0 0,000 mm 0,0 UV-I 0 W/m 12,3 C 13,6 C 0,0 km/h (0 Bft) 91,30 %
30.07.2021 02:12 13,6 C 12,8 C 92 % 1013,1 hPa 0,0 l/m 0,0 km/h (0 Bft) N 0 0,000 mm 0,0 UV-I 0 W/m 12,3 C 13,6 C 0,0 km/h (0 Bft) 95,65 %
30.07.2021 02:11 13,6 C 12,8 C 92 % 1013,1 hPa 0,0 l/m 0,0 km/h (0 Bft) N 0 0,000 mm 0,0 UV-I 0 W/m 12,3 C 13,6 C 0,0 km/h (0 Bft) 91,30 %
30.07.2021 02:10 13,6 C 13,3 C 92 % 1013,2 hPa 0,0 l/m 0,0 km/h (0 Bft) N 0 0,000 mm 0,0 UV-I 0 W/m 12,3 C 13,6 C 0,0 km/h (0 Bft) 95,65 %
30.07.2021 02:09 13,5 C 13,3 C 92 % 1013,1 hPa 0,0 l/m 0,0 km/h (0 Bft) N 0 0,000 mm 0,0 UV-I 0 W/m 12,2 C 13,5 C 0,0 km/h (0 Bft) 95,65 %
30.07.2021 02:08 13,5 C 12,8 C 92 % 1013,2 hPa 0,0 l/m 0,0 km/h (0 Bft) N 0 0,000 mm 0,0 UV-I 0 W/m 12,2 C 13,5 C 0,0 km/h (0 Bft) 91,30 %
30.07.2021 02:07 13,5 C 12,8 C 92 % 1013,2 hPa 0,0 l/m 0,0 km/h (0 Bft) N 0 0,000 mm 0,0 UV-I 0 W/m 12,2 C 13,5 C 0,0 km/h (0 Bft) 91,30 %
30.07.2021 02:06 13,4 C 12,8 C 92 % 1013,2 hPa 0,0 l/m 0,0 km/h (0 Bft) N 0 0,000 mm 0,0 UV-I 0 W/m 12,1 C 13,4 C 0,0 km/h (0 Bft) 95,65 %
30.07.2021 02:05 13,4 C 12,8 C 92 % 1013,2 hPa 0,0 l/m 0,0 km/h (0 Bft) N 0 0,000 mm 0,0 UV-I 0 W/m 12,1 C 13,4 C 0,0 km/h (0 Bft) 95,65 %
30.07.2021 02:04 13,4 C 12,8 C 92 % 1013,2 hPa 0,0 l/m 0,0 km/h (0 Bft) N 0 0,000 mm 0,0 UV-I 0 W/m 12,1 C 13,4 C 0,0 km/h (0 Bft) 95,65 %
30.07.2021 02:03 13,3 C 12,8 C 92 % 1013,2 hPa 0,0 l/m 0,0 km/h (0 Bft) N 0 0,000 mm 0,0 UV-I 0 W/m 12,0 C 13,3 C 0,0 km/h (0 Bft) 91,30 %
30.07.2021 02:02 13,4 C 12,8 C 92 % 1013,2 hPa 0,0 l/m 0,0 km/h (0 Bft) N 0 0,000 mm 0,0 UV-I 0 W/m 12,1 C 13,4 C 0,0 km/h (0 Bft) 100,00 %
30.07.2021 02:01 13,3 C 12,8 C 92 % 1013,2 hPa 0,0 l/m 0,0 km/h (0 Bft) N 0 0,000 mm 0,0 UV-I 0 W/m 12,0 C 13,3 C 0,0 km/h (0 Bft) 91,30 %
30.07.2021 02:00 13,3 C 12,8 C 91 % 1013,2 hPa 0,0 l/m 0,0 km/h (0 Bft) N 0 0,000 mm 0,0 UV-I 0 W/m 11,9 C 13,3 C 0,0 km/h (0 Bft) 95,65 %
30.07.2021 01:59 13,3 C 12,8 C 91 % 1013,2 hPa 0,0 l/m 0,0 km/h (0 Bft) N 0 0,000 mm 0,0 UV-I 0 W/m 11,9 C 13,3 C 0,0 km/h (0 Bft) 95,65 %
30.07.2021 01:58 13,3 C 12,8 C 91 % 1013,2 hPa 0,0 l/m 0,0 km/h (0 Bft) N 0 0,000 mm 0,0 UV-I 0 W/m 11,9 C 13,3 C 0,0 km/h (0 Bft) 95,65 %
30.07.2021 01:57 13,4 C 12,8 C 91 % 1013,2 hPa 0,0 l/m 0,0 km/h (0 Bft) N 0 0,000 mm 0,0 UV-I 0 W/m 12,0 C 13,4 C 0,0 km/h (0 Bft) 91,30 %
30.07.2021 01:56 13,4 C 12,8 C 91 % 1013,2 hPa 0,0 l/m 0,0 km/h (0 Bft) N 0 0,000 mm 0,0 UV-I 0 W/m 12,0 C 13,4 C 0,0 km/h (0 Bft) 100,00 %
30.07.2021 01:55 13,4 C 12,8 C 91 % 1013,2 hPa 0,0 l/m 0,0 km/h (0 Bft) N 0 0,000 mm 0,0 UV-I 0 W/m 12,0 C 13,4 C 0,0 km/h (0 Bft) 91,30 %
30.07.2021 01:54 13,5 C 12,8 C 91 % 1013,2 hPa 0,0 l/m 0,0 km/h (0 Bft) N 0 0,000 mm 0,0 UV-I 0 W/m 12,1 C 13,5 C 0,0 km/h (0 Bft) 95,65 %
30.07.2021 01:53 13,5 C 12,8 C 91 % 1013,2 hPa 0,0 l/m 0,0 km/h (0 Bft) N 0 0,000 mm 0,0 UV-I 0 W/m 12,1 C 13,5 C 0,0 km/h (0 Bft) 100,00 %
30.07.2021 01:52 13,5 C 12,8 C 91 % 1013,2 hPa 0,0 l/m 0,0 km/h (0 Bft) N 0 0,000 mm 0,0 UV-I 0 W/m 12,1 C 13,5 C 0,0 km/h (0 Bft) 91,30 %
30.07.2021 01:51 13,6 C 12,8 C 91 % 1013,2 hPa 0,0 l/m 0,0 km/h (0 Bft) N 0 0,000 mm 0,0 UV-I 0 W/m 12,2 C 13,6 C 0,0 km/h (0 Bft) 95,65 %
30.07.2021 01:50 13,6 C 12,8 C 91 % 1013,2 hPa 0,0 l/m 0,0 km/h (0 Bft) N 0 0,000 mm 0,0 UV-I 0 W/m 12,2 C 13,6 C 0,0 km/h (0 Bft) 100,00 %
30.07.2021 01:49 13,6 C 12,8 C 91 % 1013,2 hPa 0,0 l/m 0,0 km/h (0 Bft) N 0 0,000 mm 0,0 UV-I 0 W/m 12,2 C 13,6 C 0,0 km/h (0 Bft) 95,65 %
30.07.2021 01:48 13,6 C 12,8 C 91 % 1013,2 hPa 0,0 l/m 0,0 km/h (0 Bft) N 0 0,000 mm 0,0 UV-I 0 W/m 12,2 C 13,6 C 0,0 km/h (0 Bft) 95,65 %
30.07.2021 01:47 13,7 C 12,8 C 91 % 1013,2 hPa 0,0 l/m 0,0 km/h (0 Bft) N 0 0,000 mm 0,0 UV-I 0 W/m 12,3 C 13,7 C 0,0 km/h (0 Bft) 100,00 %
30.07.2021 01:46 13,6 C 12,8 C 91 % 1013,2 hPa 0,0 l/m 0,0 km/h (0 Bft) N 0 0,000 mm 0,0 UV-I 0 W/m 12,2 C 13,6 C 0,0 km/h (0 Bft) 86,96 %
30.07.2021 01:45 13,6 C 12,8 C 91 % 1013,1 hPa 0,0 l/m 0,0 km/h (0 Bft) N 0 0,000 mm 0,0 UV-I 0 W/m 12,2 C 13,6 C 0,0 km/h (0 Bft) 95,65 %
30.07.2021 01:44 13,6 C 12,8 C 91 % 1013,2 hPa 0,0 l/m 0,0 km/h (0 Bft) N 0 0,000 mm 0,0 UV-I 0 W/m 12,2 C 13,6 C 0,0 km/h (0 Bft) 100,00 %
30.07.2021 01:43 13,6 C 12,8 C 91 % 1013,2 hPa 0,0 l/m 0,0 km/h (0 Bft) N 0 0,000 mm 0,0 UV-I 0 W/m 12,2 C 13,6 C 0,0 km/h (0 Bft) 91,30 %
30.07.2021 01:42 13,6 C 12,8 C 91 % 1013,2 hPa 0,0 l/m 0,0 km/h (0 Bft) N 0 0,000 mm 0,0 UV-I 0 W/m 12,2 C 13,6 C 0,0 km/h (0 Bft) 95,65 %
30.07.2021 01:41 13,6 C 12,8 C 91 % 1013,1 hPa 0,0 l/m 0,0 km/h (0 Bft) W-SW 247 0,000 mm 0,0 UV-I 0 W/m 12,2 C 13,6 C 1,6 km/h (1 Bft) 100,00 %
30.07.2021 01:40 13,6 C 12,8 C 91 % 1013,2 hPa 0,0 l/m 1,6 km/h (1 Bft) W-SW 247 0,000 mm 0,0 UV-I 0 W/m 12,2 C 13,6 C 3,2 km/h (1 Bft) 95,65 %
30.07.2021 01:39 13,6 C 13,3 C 91 % 1013,3 hPa 0,0 l/m 1,6 km/h (1 Bft) W-SW 247 0,000 mm 0,0 UV-I 0 W/m 12,2 C 13,6 C 3,2 km/h (1 Bft) 95,65 %
30.07.2021 01:38 13,5 C 13,3 C 91 % 1013,2 hPa 0,0 l/m 3,2 km/h (1 Bft) W-SW 247 0,000 mm 0,0 UV-I 0 W/m 12,1 C 13,5 C 3,2 km/h (1 Bft) 100,00 %
30.07.2021 01:37 13,5 C 13,3 C 91 % 1013,2 hPa 0,0 l/m 3,2 km/h (1 Bft) W-SW 247 0,000 mm 0,0 UV-I 0 W/m 12,1 C 13,5 C 3,2 km/h (1 Bft) 95,65 %
30.07.2021 01:36 13,4 C 13,3 C 91 % 1013,2 hPa 0,0 l/m 1,6 km/h (1 Bft) W-SW 247 0,000 mm 0,0 UV-I 0 W/m 12,0 C 13,4 C 3,2 km/h (1 Bft) 95,65 %
30.07.2021 01:35 13,5 C 13,3 C 91 % 1013,2 hPa 0,0 l/m 3,2 km/h (1 Bft) W-SW 247 0,000 mm 0,0 UV-I 0 W/m 12,1 C 13,5 C 3,2 km/h (1 Bft) 100,00 %
30.07.2021 01:34 13,5 C 13,3 C 90 % 1013,2 hPa 0,0 l/m 3,2 km/h (1 Bft) W-SW 247 0,000 mm 0,0 UV-I 0 W/m 11,9 C 13,5 C 3,2 km/h (1 Bft) 95,65 %
30.07.2021 01:33 13,6 C 13,3 C 91 % 1013,2 hPa 0,0 l/m 3,2 km/h (1 Bft) W-SW 247 0,000 mm 0,0 UV-I 0 W/m 12,2 C 13,6 C 3,2 km/h (1 Bft) 95,65 %
30.07.2021 01:32 13,6 C 13,3 C 91 % 1013,2 hPa 0,0 l/m 1,6 km/h (1 Bft) W-SW 247 0,000 mm 0,0 UV-I 0 W/m 12,2 C 13,6 C 3,2 km/h (1 Bft) 95,65 %
30.07.2021 01:31 13,6 C 13,3 C 91 % 1013,2 hPa 0,0 l/m 3,2 km/h (1 Bft) W-SW 247 0,000 mm 0,0 UV-I 0 W/m 12,2 C 13,6 C 3,2 km/h (1 Bft) 91,30 %
30.07.2021 01:30 13,7 C 13,3 C 91 % 1013,2 hPa 0,0 l/m 3,2 km/h (1 Bft) W-SW 247 0,000 mm 0,0 UV-I 0 W/m 12,3 C 13,7 C 3,2 km/h (1 Bft) 95,65 %
30.07.2021 01:29 13,6 C 13,3 C 91 % 1013,2 hPa 0,0 l/m 1,6 km/h (1 Bft) W-SW 247 0,000 mm 0,0 UV-I 0 W/m 12,2 C 13,6 C 3,2 km/h (1 Bft) 95,65 %
30.07.2021 01:28 13,7 C 13,3 C 90 % 1013,2 hPa 0,0 l/m 1,6 km/h (1 Bft) W-SW 247 0,000 mm 0,0 UV-I 0 W/m 12,1 C 13,7 C 3,2 km/h (1 Bft) 95,65 %
30.07.2021 01:27 13,7 C 13,3 C 90 % 1013,2 hPa 0,0 l/m 1,6 km/h (1 Bft) W-SW 247 0,000 mm 0,0 UV-I 0 W/m 12,1 C 13,7 C 3,2 km/h (1 Bft) 95,65 %
30.07.2021 01:26 13,7 C 13,3 C 90 % 1013,2 hPa 0,0 l/m 1,6 km/h (1 Bft) W-SW 247 0,000 mm 0,0 UV-I 0 W/m 12,1 C 13,7 C 3,2 km/h (1 Bft) 100,00 %
30.07.2021 01:25 13,7 C 13,3 C 90 % 1013,3 hPa 0,0 l/m 1,6 km/h (1 Bft) W-SW 247 0,000 mm 0,0 UV-I 0 W/m 12,1 C 13,7 C 3,2 km/h (1 Bft) 95,65 %
30.07.2021 01:24 13,8 C 13,3 C 90 % 1013,3 hPa 0,0 l/m 1,6 km/h (1 Bft) W-SW 247 0,000 mm 0,0 UV-I 0 W/m 12,2 C 13,8 C 3,2 km/h (1 Bft) 95,65 %
30.07.2021 01:23 13,9 C 13,3 C 90 % 1013,3 hPa 0,0 l/m 1,6 km/h (1 Bft) W-SW 247 0,000 mm 0,0 UV-I 0 W/m 12,3 C 13,9 C 3,2 km/h (1 Bft) 100,00 %
30.07.2021 01:22 13,9 C 13,3 C 90 % 1013,2 hPa 0,0 l/m 1,6 km/h (1 Bft) W-SW 247 0,000 mm 0,0 UV-I 0 W/m 12,3 C 13,9 C 1,6 km/h (1 Bft) 91,30 %
30.07.2021 01:21 13,9 C 13,3 C 90 % 1013,3 hPa 0,0 l/m 1,6 km/h (1 Bft) W-SW 247 0,000 mm 0,0 UV-I 0 W/m 12,3 C 13,9 C 1,6 km/h (1 Bft) 95,65 %
30.07.2021 01:20 13,9 C 13,3 C 90 % 1013,2 hPa 0,0 l/m 1,6 km/h (1 Bft) W-SW 247 0,000 mm 0,0 UV-I 0 W/m 12,3 C 13,9 C 1,6 km/h (1 Bft) 95,65 %
30.07.2021 01:19 13,8 C 13,3 C 90 % 1013,3 hPa 0,0 l/m 1,6 km/h (1 Bft) W-SW 247 0,000 mm 0,0 UV-I 0 W/m 12,2 C 13,8 C 3,2 km/h (1 Bft) 95,65 %
30.07.2021 01:18 13,8 C 13,3 C 90 % 1013,3 hPa 0,0 l/m 1,6 km/h (1 Bft) W-SW 247 0,000 mm 0,0 UV-I 0 W/m 12,2 C 13,8 C 1,6 km/h (1 Bft) 95,65 %
30.07.2021 01:17 13,8 C 13,3 C 90 % 1013,2 hPa 0,0 l/m 1,6 km/h (1 Bft) W-SW 247 0,000 mm 0,0 UV-I 0 W/m 12,2 C 13,8 C 1,6 km/h (1 Bft) 95,65 %
30.07.2021 01:16 13,8 C 13,3 C 90 % 1013,2 hPa 0,0 l/m 1,6 km/h (1 Bft) W-SW 247 0,000 mm 0,0 UV-I 0 W/m 12,2 C 13,8 C 1,6 km/h (1 Bft) 95,65 %
30.07.2021 01:15 13,9 C 13,3 C 90 % 1013,2 hPa 0,0 l/m 1,6 km/h (1 Bft) W-SW 247 0,000 mm 0,0 UV-I 0 W/m 12,3 C 13,9 C 3,2 km/h (1 Bft) 91,30 %
30.07.2021 01:14 13,9 C 13,3 C 90 % 1013,1 hPa 0,0 l/m 1,6 km/h (1 Bft) W-SW 247 0,000 mm 0,0 UV-I 0 W/m 12,3 C 13,9 C 1,6 km/h (1 Bft) 95,65 %
30.07.2021 01:13 13,9 C 13,3 C 90 % 1013,1 hPa 0,0 l/m 1,6 km/h (1 Bft) W-SW 247 0,000 mm 0,0 UV-I 0 W/m 12,3 C 13,9 C 3,2 km/h (1 Bft) 91,30 %
30.07.2021 01:12 13,9 C 13,3 C 90 % 1013,2 hPa 0,0 l/m 3,2 km/h (1 Bft) W-SW 247 0,000 mm 0,0 UV-I 0 W/m 12,3 C 13,9 C 3,2 km/h (1 Bft) 95,65 %
30.07.2021 01:11 13,9 C 13,3 C 90 % 1013,1 hPa 0,0 l/m 3,2 km/h (1 Bft) W-SW 247 0,000 mm 0,0 UV-I 0 W/m 12,3 C 13,9 C 3,2 km/h (1 Bft) 91,30 %
30.07.2021 01:10 14,0 C 13,3 C 90 % 1013,3 hPa 0,0 l/m 1,6 km/h (1 Bft) W-SW 247 0,000 mm 0,0 UV-I 0 W/m 12,4 C 14,0 C 3,2 km/h (1 Bft) 100,00 %
30.07.2021 01:09 14,1 C 13,3 C 90 % 1013,2 hPa 0,0 l/m 3,2 km/h (1 Bft) W-SW 247 0,000 mm 0,0 UV-I 0 W/m 12,5 C 14,1 C 3,2 km/h (1 Bft) 91,30 %
30.07.2021 01:08 14,1 C 13,3 C 90 % 1013,2 hPa 0,0 l/m 3,2 km/h (1 Bft) W-SW 247 0,000 mm 0,0 UV-I 0 W/m 12,5 C 14,1 C 3,2 km/h (1 Bft) 91,30 %
30.07.2021 01:07 14,1 C 13,3 C 90 % 1013,2 hPa 0,0 l/m 3,2 km/h (1 Bft) W-SW 247 0,000 mm 0,0 UV-I 0 W/m 12,5 C 14,1 C 3,2 km/h (1 Bft) 95,65 %
30.07.2021 01:06 14,1 C 13,3 C 90 % 1013,3 hPa 0,0 l/m 1,6 km/h (1 Bft) W-SW 247 0,000 mm 0,0 UV-I 0 W/m 12,5 C 14,1 C 3,2 km/h (1 Bft) 91,30 %
30.07.2021 01:05 14,1 C 13,3 C 90 % 1013,3 hPa 0,0 l/m 1,6 km/h (1 Bft) W-SW 247 0,000 mm 0,0 UV-I 0 W/m 12,5 C 14,1 C 3,2 km/h (1 Bft) 95,65 %
30.07.2021 01:04 14,1 C 13,3 C 90 % 1013,2 hPa 0,0 l/m 1,6 km/h (1 Bft) W-SW 247 0,000 mm 0,0 UV-I 0 W/m 12,5 C 14,1 C 3,2 km/h (1 Bft) 91,30 %
30.07.2021 01:03 14,1 C 13,3 C 90 % 1013,2 hPa 0,0 l/m 1,6 km/h (1 Bft) W-SW 247 0,000 mm 0,0 UV-I 0 W/m 12,5 C 14,1 C 3,2 km/h (1 Bft) 95,65 %
30.07.2021 01:02 14,1 C 13,3 C 90 % 1013,2 hPa 0,0 l/m 1,6 km/h (1 Bft) W-SW 247 0,000 mm 0,0 UV-I 0 W/m 12,5 C 14,1 C 1,6 km/h (1 Bft) 91,30 %
30.07.2021 01:01 14,1 C 13,3 C 90 % 1013,3 hPa 0,0 l/m 1,6 km/h (1 Bft) W-SW 247 0,000 mm 0,0 UV-I 0 W/m 12,5 C 14,1 C 3,2 km/h (1 Bft) 95,65 %
30.07.2021 01:00 14,1 C 13,3 C 90 % 1013,2 hPa 0,0 l/m 1,6 km/h (1 Bft) W-SW 247 0,000 mm 0,0 UV-I 0 W/m 12,5 C 14,1 C 3,2 km/h (1 Bft) 91,30 %
30.07.2021 00:59 14,1 C 13,3 C 90 % 1013,3 hPa 0,0 l/m 1,6 km/h (1 Bft) W-SW 247 0,000 mm 0,0 UV-I 0 W/m 12,5 C 14,1 C 3,2 km/h (1 Bft) 95,65 %
30.07.2021 00:58 14,1 C 13,3 C 90 % 1013,3 hPa 0,0 l/m 3,2 km/h (1 Bft) W-SW 247 0,000 mm 0,0 UV-I 0 W/m 12,5 C 14,1 C 3,2 km/h (1 Bft) 95,65 %
30.07.2021 00:57 14,1 C 13,3 C 90 % 1013,3 hPa 0,0 l/m 1,6 km/h (1 Bft) W-SW 247 0,000 mm 0,0 UV-I 0 W/m 12,5 C 14,1 C 3,2 km/h (1 Bft) 91,30 %
30.07.2021 00:56 14,1 C 13,3 C 90 % 1013,3 hPa 0,0 l/m 3,2 km/h (1 Bft) W-SW 247 0,000 mm 0,0 UV-I 0 W/m 12,5 C 14,1 C 3,2 km/h (1 Bft) 95,65 %
30.07.2021 00:55 14,1 C 13,3 C 90 % 1013,2 hPa 0,0 l/m 3,2 km/h (1 Bft) W-SW 247 0,000 mm 0,0 UV-I 0 W/m 12,5 C 14,1 C 3,2 km/h (1 Bft) 95,65 %
30.07.2021 00:54 14,1 C 13,3 C 89 % 1013,3 hPa 0,0 l/m 3,2 km/h (1 Bft) W-SW 247 0,000 mm 0,0 UV-I 0 W/m 12,3 C 14,1 C 3,2 km/h (1 Bft) 95,65 %
30.07.2021 00:53 14,1 C 13,3 C 89 % 1013,3 hPa 0,0 l/m 3,2 km/h (1 Bft) W-SW 247 0,000 mm 0,0 UV-I 0 W/m 12,3 C 14,1 C 3,2 km/h (1 Bft) 91,30 %
30.07.2021 00:52 14,1 C 13,3 C 89 % 1013,3 hPa 0,0 l/m 3,2 km/h (1 Bft) W-SW 247 0,000 mm 0,0 UV-I 0 W/m 12,3 C 14,1 C 3,2 km/h (1 Bft) 100,00 %
30.07.2021 00:51 14,1 C 13,3 C 89 % 1013,3 hPa 0,0 l/m 1,6 km/h (1 Bft) W-SW 247 0,000 mm 0,0 UV-I 0 W/m 12,3 C 14,1 C 3,2 km/h (1 Bft) 91,30 %
30.07.2021 00:50 14,1 C 13,3 C 89 % 1013,3 hPa 0,0 l/m 1,6 km/h (1 Bft) W-SW 247 0,000 mm 0,0 UV-I 0 W/m 12,3 C 14,1 C 3,2 km/h (1 Bft) 95,65 %
30.07.2021 00:49 14,1 C 13,3 C 89 % 1013,3 hPa 0,0 l/m 1,6 km/h (1 Bft) W-SW 247 0,000 mm 0,0 UV-I 0 W/m 12,3 C 14,1 C 3,2 km/h (1 Bft) 95,65 %
30.07.2021 00:48 14,1 C 13,3 C 89 % 1013,4 hPa 0,0 l/m 1,6 km/h (1 Bft) W-SW 247 0,000 mm 0,0 UV-I 0 W/m 12,3 C 14,1 C 3,2 km/h (1 Bft) 78,26 %
30.07.2021 00:47 14,2 C 13,3 C 89 % 1013,3 hPa 0,0 l/m 1,6 km/h (1 Bft) W-SW 247 0,000 mm 0,0 UV-I 0 W/m 12,4 C 14,2 C 3,2 km/h (1 Bft) 91,30 %
30.07.2021 00:46 14,2 C 13,3 C 89 % 1013,3 hPa 0,0 l/m 1,6 km/h (1 Bft) W-SW 247 0,000 mm 0,0 UV-I 0 W/m 12,4 C 14,2 C 1,6 km/h (1 Bft) 91,30 %
30.07.2021 00:45 14,2 C 13,3 C 89 % 1013,4 hPa 0,0 l/m 1,6 km/h (1 Bft) W-SW 247 0,000 mm 0,0 UV-I 0 W/m 12,4 C 14,2 C 3,2 km/h (1 Bft) 95,65 %
30.07.2021 00:44 14,2 C 13,3 C 89 % 1013,4 hPa 0,0 l/m 1,6 km/h (1 Bft) W-SW 247 0,000 mm 0,0 UV-I 0 W/m 12,4 C 14,2 C 3,2 km/h (1 Bft) 86,96 %
30.07.2021 00:43 14,2 C 13,3 C 89 % 1013,4 hPa 0,0 l/m 1,6 km/h (1 Bft) W-SW 247 0,000 mm 0,0 UV-I 0 W/m 12,4 C 14,2 C 3,2 km/h (1 Bft) 100,00 %
30.07.2021 00:42 14,2 C 13,3 C 89 % 1013,4 hPa 0,0 l/m 1,6 km/h (1 Bft) W-SW 247 0,000 mm 0,0 UV-I 0 W/m 12,4 C 14,2 C 3,2 km/h (1 Bft) 86,96 %
30.07.2021 00:41 14,3 C 13,3 C 89 % 1013,3 hPa 0,0 l/m 3,2 km/h (1 Bft) W-SW 247 0,000 mm 0,0 UV-I 0 W/m 12,5 C 14,3 C 3,2 km/h (1 Bft) 95,65 %
30.07.2021 00:40 14,3 C 13,3 C 89 % 1013,4 hPa 0,0 l/m 1,6 km/h (1 Bft) W-SW 247 0,000 mm 0,0 UV-I 0 W/m 12,5 C 14,3 C 3,2 km/h (1 Bft) 95,65 %
30.07.2021 00:39 14,3 C 13,3 C 89 % 1013,3 hPa 0,0 l/m 1,6 km/h (1 Bft) W-SW 247 0,000 mm 0,0 UV-I 0 W/m 12,5 C 14,3 C 3,2 km/h (1 Bft) 95,65 %
30.07.2021 00:38 14,4 C 13,9 C 89 % 1013,3 hPa 0,0 l/m 1,6 km/h (1 Bft) W-SW 247 0,000 mm 0,0 UV-I 0 W/m 12,6 C 14,4 C 3,2 km/h (1 Bft) 86,96 %
30.07.2021 00:37 14,5 C 13,9 C 89 % 1013,3 hPa 0,0 l/m 1,6 km/h (1 Bft) W-SW 247 0,000 mm 0,0 UV-I 0 W/m 12,7 C 14,5 C 3,2 km/h (1 Bft) 91,30 %
30.07.2021 00:36 14,6 C 13,9 C 88 % 1013,3 hPa 0,0 l/m 1,6 km/h (1 Bft) W-SW 247 0,000 mm 0,0 UV-I 0 W/m 12,6 C 14,6 C 3,2 km/h (1 Bft) 95,65 %
30.07.2021 00:35 14,6 C 13,9 C 88 % 1013,4 hPa 0,0 l/m 1,6 km/h (1 Bft) W-SW 247 0,000 mm 0,0 UV-I 0 W/m 12,6 C 14,6 C 3,2 km/h (1 Bft) 86,96 %
30.07.2021 00:34 14,7 C 13,9 C 88 % 1013,3 hPa 0,0 l/m 1,6 km/h (1 Bft) W-SW 247 0,000 mm 0,0 UV-I 0 W/m 12,7 C 14,7 C 3,2 km/h (1 Bft) 95,65 %
30.07.2021 00:33 14,7 C 13,9 C 88 % 1013,4 hPa 0,0 l/m 1,6 km/h (1 Bft) W-SW 247 0,000 mm 0,0 UV-I 0 W/m 12,7 C 14,7 C 3,2 km/h (1 Bft) 95,65 %
30.07.2021 00:32 14,8 C 13,9 C 88 % 1013,3 hPa 0,0 l/m 1,6 km/h (1 Bft) W-SW 247 0,000 mm 0,0 UV-I 0 W/m 12,8 C 14,8 C 3,2 km/h (1 Bft) 95,65 %
30.07.2021 00:31 14,8 C 13,9 C 88 % 1013,3 hPa 0,0 l/m 1,6 km/h (1 Bft) W-SW 247 0,000 mm 0,0 UV-I 0 W/m 12,8 C 14,8 C 3,2 km/h (1 Bft) 91,30 %
30.07.2021 00:30 14,9 C 13,9 C 87 % 1013,3 hPa 0,0 l/m 1,6 km/h (1 Bft) W-SW 247 0,000 mm 0,0 UV-I 0 W/m 12,8 C 14,9 C 3,2 km/h (1 Bft) 100,00 %
30.07.2021 00:29 14,9 C 13,9 C 87 % 1013,3 hPa 0,0 l/m 1,6 km/h (1 Bft) W-SW 247 0,000 mm 0,0 UV-I 0 W/m 12,8 C 14,9 C 3,2 km/h (1 Bft) 86,96 %
30.07.2021 00:28 15,1 C 13,9 C 87 % 1013,3 hPa 0,0 l/m 1,6 km/h (1 Bft) W-SW 247 0,000 mm 0,0 UV-I 0 W/m 13,0 C 15,1 C 3,2 km/h (1 Bft) 95,65 %
30.07.2021 00:27 15,1 C 13,9 C 87 % 1013,4 hPa 0,0 l/m 3,2 km/h (1 Bft) W-SW 247 0,000 mm 0,0 UV-I 0 W/m 13,0 C 15,1 C 3,2 km/h (1 Bft) 95,65 %
30.07.2021 00:26 15,2 C 13,9 C 87 % 1013,3 hPa 0,0 l/m 3,2 km/h (1 Bft) W-SW 247 0,000 mm 0,0 UV-I 0 W/m 13,0 C 15,2 C 3,2 km/h (1 Bft) 91,30 %
30.07.2021 00:25 15,3 C 13,9 C 86 % 1013,4 hPa 0,0 l/m 3,2 km/h (1 Bft) W-SW 247 0,000 mm 0,0 UV-I 0 W/m 13,0 C 15,3 C 3,2 km/h (1 Bft) 91,30 %
30.07.2021 00:24 15,3 C 13,9 C 86 % 1013,4 hPa 0,0 l/m 1,6 km/h (1 Bft) W-SW 247 0,000 mm 0,0 UV-I 0 W/m 13,0 C 15,3 C 3,2 km/h (1 Bft) 95,65 %
30.07.2021 00:23 15,4 C 13,9 C 86 % 1013,4 hPa 0,0 l/m 0,0 km/h (0 Bft) N 0 0,000 mm 0,0 UV-I 0 W/m 13,1 C 15,4 C 0,0 km/h (0 Bft) 91,30 %
30.07.2021 00:22 15,4 C 13,9 C 86 % 1013,3 hPa 0,0 l/m 0,0 km/h (0 Bft) N 0 0,000 mm 0,0 UV-I 0 W/m 13,1 C 15,4 C 0,0 km/h (0 Bft) 95,65 %
30.07.2021 00:21 15,5 C 13,9 C 86 % 1013,3 hPa 0,0 l/m 0,0 km/h (0 Bft) N 0 0,000 mm 0,0 UV-I 0 W/m 13,2 C 15,5 C 0,0 km/h (0 Bft) 95,65 %
30.07.2021 00:20 15,6 C 13,9 C 86 % 1013,4 hPa 0,0 l/m 0,0 km/h (0 Bft) N 0 0,000 mm 0,0 UV-I 0 W/m 13,3 C 15,6 C 0,0 km/h (0 Bft) 95,65 %
30.07.2021 00:19 15,6 C 13,9 C 86 % 1013,4 hPa 0,0 l/m 0,0 km/h (0 Bft) N 0 0,000 mm 0,0 UV-I 0 W/m 13,3 C 15,6 C 0,0 km/h (0 Bft) 91,30 %
30.07.2021 00:18 15,6 C 13,9 C 86 % 1013,3 hPa 0,0 l/m 0,0 km/h (0 Bft) N 0 0,000 mm 0,0 UV-I 0 W/m 13,3 C 15,6 C 0,0 km/h (0 Bft) 100,00 %
30.07.2021 00:17 15,6 C 13,9 C 86 % 1013,4 hPa 0,0 l/m 0,0 km/h (0 Bft) N 0 0,000 mm 0,0 UV-I 0 W/m 13,3 C 15,6 C 0,0 km/h (0 Bft) 95,65 %
30.07.2021 00:16 15,7 C 13,9 C 86 % 1013,3 hPa 0,0 l/m 1,6 km/h (1 Bft) W-SW 247 0,000 mm 0,0 UV-I 0 W/m 13,4 C 15,7 C 1,6 km/h (1 Bft) 95,65 %
30.07.2021 00:15 15,7 C 13,9 C 86 % 1013,4 hPa 0,0 l/m 1,6 km/h (1 Bft) W-SW 247 0,000 mm 0,0 UV-I 0 W/m 13,4 C 15,7 C 1,6 km/h (1 Bft) 95,65 %
30.07.2021 00:14 15,7 C 13,9 C 86 % 1013,3 hPa 0,0 l/m 3,2 km/h (1 Bft) W-SW 247 0,000 mm 0,0 UV-I 0 W/m 13,4 C 15,7 C 3,2 km/h (1 Bft) 91,30 %
30.07.2021 00:13 15,7 C 13,9 C 86 % 1013,4 hPa 0,0 l/m 3,2 km/h (1 Bft) W-SW 247 0,000 mm 0,0 UV-I 0 W/m 13,4 C 15,7 C 4,8 km/h (1 Bft) 91,30 %
30.07.2021 00:12 15,6 C 13,9 C 86 % 1013,3 hPa 0,0 l/m 3,2 km/h (1 Bft) W-SW 247 0,000 mm 0,0 UV-I 0 W/m 13,3 C 15,6 C 4,8 km/h (1 Bft) 100,00 %
30.07.2021 00:11 15,7 C 13,9 C 86 % 1013,4 hPa 0,0 l/m 4,8 km/h (1 Bft) W-SW 247 0,000 mm 0,0 UV-I 0 W/m 13,4 C 15,7 C 4,8 km/h (1 Bft) 95,65 %
30.07.2021 00:10 15,7 C 13,9 C 86 % 1013,4 hPa 0,0 l/m 3,2 km/h (1 Bft) W-SW 247 0,000 mm 0,0 UV-I 0 W/m 13,4 C 15,7 C 4,8 km/h (1 Bft) 95,65 %
30.07.2021 00:09 15,7 C 13,9 C 86 % 1013,4 hPa 0,0 l/m 3,2 km/h (1 Bft) W-SW 247 0,000 mm 0,0 UV-I 0 W/m 13,4 C 15,7 C 3,2 km/h (1 Bft) 100,00 %
30.07.2021 00:08 15,7 C 13,9 C 86 % 1013,4 hPa 0,0 l/m 1,6 km/h (1 Bft) W-SW 247 0,000 mm 0,0 UV-I 0 W/m 13,4 C 15,7 C 3,2 km/h (1 Bft) 95,65 %
30.07.2021 00:07 15,8 C 13,9 C 85 % 1013,4 hPa 0,0 l/m 1,6 km/h (1 Bft) W-SW 247 0,000 mm 0,0 UV-I 0 W/m 13,3 C 15,8 C 3,2 km/h (1 Bft) 91,30 %
30.07.2021 00:06 15,8 C 13,9 C 85 % 1013,4 hPa 0,0 l/m 1,6 km/h (1 Bft) W-SW 247 0,000 mm 0,0 UV-I 0 W/m 13,3 C 15,8 C 3,2 km/h (1 Bft) 100,00 %
30.07.2021 00:05 15,8 C 13,9 C 85 % 1013,4 hPa 0,0 l/m 3,2 km/h (1 Bft) W-SW 247 0,000 mm 0,0 UV-I 0 W/m 13,3 C 15,8 C 3,2 km/h (1 Bft) 95,65 %
30.07.2021 00:04 15,9 C 13,9 C 85 % 1013,5 hPa 0,0 l/m 3,2 km/h (1 Bft) W-SW 247 0,000 mm 0,0 UV-I 0 W/m 13,4 C 15,9 C 4,8 km/h (1 Bft) 95,65 %
30.07.2021 00:03 15,9 C 13,9 C 85 % 1013,4 hPa 0,0 l/m 3,2 km/h (1 Bft) W-SW 247 0,000 mm 0,0 UV-I 0 W/m 13,4 C 15,9 C 4,8 km/h (1 Bft) 100,00 %
30.07.2021 00:02 15,9 C 13,9 C 85 % 1013,4 hPa 0,0 l/m 3,2 km/h (1 Bft) W-SW 247 0,000 mm 0,0 UV-I 0 W/m 13,4 C 15,9 C 3,2 km/h (1 Bft) 95,65 %
30.07.2021 00:01 15,9 C 13,9 C 85 % 1013,4 hPa 0,0 l/m 3,2 km/h (1 Bft) W-SW 247 0,000 mm 0,0 UV-I 0 W/m 13,4 C 15,9 C 3,2 km/h (1 Bft) 82,61 %
30.07.2021 00:00 15,9 C 13,9 C 85 % 1013,4 hPa 0,0 l/m 3,2 km/h (1 Bft) W-SW 247 0,025 mm 0,0 UV-I 0 W/m 13,4 C 15,9 C 4,8 km/h (1 Bft) 95,65 %
_ Min-Zeit 05:08 03:53 09:55 09:52 - 00:17 - - - - - 05:08 05:08 00:17 00:48
Minimum _ 11,8 C 12,2 C 50 % 1012,4 hPa - 0,0 km/h (0 Bft) - - - - - 10,7 C 11,8 C 0,0 km/h (0 Bft) 78,26 %
_ Max-Zeit 09:56 09:26 05:12 00:04 05:54 09:43 - - 10:00 09:50 09:50 09:27 09:56 09:43 00:03
Maximum _ 23,3 C 31,7 C 94 % 1013,5 hPa 0,2 l/m 8,0 km/h
SW (2 Bft)
- - 0,330 mm 3,3 UV-I 856 W/m 18,1 C 23,3 C 12,9 km/h
SW (3 Bft)
100,00 %
Durchschnitt _ 15,3 C 15,6 C 88 % 1012,9 hPa #0,2 l/m 2,0 km/h (1 Bft) SW - #0,634 mm 1,8 UV-I 223 W/m 13,1 C 15,3 C 2,8 km/h (1 Bft) 94,56 %